Wetterdaten: Freitag, 04.02.2022
Datum Zeit Temp. Aussen Temp. o. S. Temp +5cm Feuchte Auss Luftdruck Regen Sonnenschein Regendauer Solar Windben Empfang
04.02.2022 00:00 6,5 C 6,1 C 3,3 C 96 % 1013,4 hPa 0,0 l/m 0 min 0 min 0 W/m 6,4 km/h (2 Bft) 95,74 %
04.02.2022 00:02 6,5 C 6,1 C 3,3 C 96 % 1013,4 hPa 0,0 l/m 0 min 0 min 0 W/m 12,9 km/h (3 Bft) 95,56 %
04.02.2022 00:04 6,5 C 6,1 C 3,3 C 96 % 1013,5 hPa 0,0 l/m 0 min 0 min 0 W/m 6,4 km/h (2 Bft) 93,62 %
04.02.2022 00:08 6,5 C 6,1 C 3,3 C 96 % 1013,5 hPa 0,0 l/m 0 min 0 min 0 W/m 9,7 km/h (2 Bft) 95,74 %
04.02.2022 00:10 6,5 C 6,1 C 3,3 C 96 % 1013,5 hPa 0,0 l/m 0 min 0 min 0 W/m 12,9 km/h (3 Bft) 95,74 %
04.02.2022 00:12 6,5 C 6,1 C 3,3 C 96 % 1013,5 hPa 0,0 l/m 0 min 0 min 0 W/m 3,2 km/h (1 Bft) 97,87 %
04.02.2022 00:14 6,5 C 6,1 C 3,3 C 96 % 1013,4 hPa 0,0 l/m 0 min 0 min 0 W/m 16,1 km/h (3 Bft) 95,74 %
04.02.2022 00:16 6,5 C 6,1 C 3,3 C 96 % 1013,4 hPa 0,0 l/m 0 min 0 min 0 W/m 12,9 km/h (3 Bft) 97,87 %
04.02.2022 00:18 6,5 C 6,1 C 3,3 C 96 % 1013,4 hPa 0,0 l/m 0 min 0 min 0 W/m 12,9 km/h (3 Bft) 97,83 %
04.02.2022 00:20 6,5 C 6,1 C 3,3 C 96 % 1013,4 hPa 0,0 l/m 0 min 0 min 0 W/m 16,1 km/h (3 Bft) 95,74 %
04.02.2022 00:22 6,5 C 6,1 C 3,3 C 96 % 1013,4 hPa 0,0 l/m 0 min 0 min 0 W/m 19,3 km/h (3 Bft) 93,62 %
04.02.2022 00:24 6,5 C 6,1 C 3,9 C 96 % 1013,4 hPa 0,0 l/m 0 min 0 min 0 W/m 25,7 km/h (4 Bft) 95,74 %
04.02.2022 00:26 6,5 C 6,1 C 3,9 C 96 % 1013,5 hPa 0,0 l/m 0 min 0 min 0 W/m 12,9 km/h (3 Bft) 91,49 %
04.02.2022 00:28 6,5 C 6,1 C 3,9 C 97 % 1013,4 hPa 0,0 l/m 0 min 0 min 0 W/m 16,1 km/h (3 Bft) 95,74 %
04.02.2022 00:30 6,5 C 6,1 C 3,9 C 97 % 1013,5 hPa 0,0 l/m 0 min 0 min 0 W/m 19,3 km/h (3 Bft) 95,65 %
04.02.2022 00:32 6,6 C 6,1 C 3,9 C 96 % 1013,4 hPa 0,0 l/m 0 min 0 min 0 W/m 19,3 km/h (3 Bft) 95,74 %
04.02.2022 00:34 6,6 C 6,1 C 3,9 C 96 % 1013,4 hPa 0,0 l/m 0 min 0 min 0 W/m 19,3 km/h (3 Bft) 95,74 %
04.02.2022 00:36 6,6 C 6,1 C 3,9 C 96 % 1013,5 hPa 0,0 l/m 0 min 0 min 0 W/m 22,5 km/h (4 Bft) 95,74 %
04.02.2022 00:38 6,6 C 6,1 C 3,9 C 96 % 1013,5 hPa 0,0 l/m 0 min 0 min 0 W/m 22,5 km/h (4 Bft) 95,74 %
04.02.2022 00:40 6,6 C 6,1 C 3,9 C 96 % 1013,5 hPa 0,0 l/m 0 min 0 min 0 W/m 19,3 km/h (3 Bft) 93,62 %
04.02.2022 00:42 6,6 C 6,1 C 3,9 C 96 % 1013,5 hPa 0,0 l/m 0 min 0 min 0 W/m 12,9 km/h (3 Bft) 93,62 %
04.02.2022 00:44 6,6 C 6,1 C 3,9 C 96 % 1013,5 hPa 0,0 l/m 0 min 0 min 0 W/m 16,1 km/h (3 Bft) 95,65 %
04.02.2022 00:46 6,6 C 6,1 C 3,9 C 96 % 1013,5 hPa 0,0 l/m 0 min 0 min 0 W/m 16,1 km/h (3 Bft) 95,74 %
04.02.2022 00:48 6,6 C 6,1 C 3,9 C 96 % 1013,5 hPa 0,0 l/m 0 min 0 min 0 W/m 6,4 km/h (2 Bft) 97,87 %
04.02.2022 00:50 6,6 C 6,1 C 3,9 C 96 % 1013,5 hPa 0,0 l/m 0 min 0 min 0 W/m 3,2 km/h (1 Bft) 97,87 %
04.02.2022 00:52 6,6 C 6,1 C 3,9 C 96 % 1013,5 hPa 0,0 l/m 0 min 0 min 0 W/m 3,2 km/h (1 Bft) 97,87 %
04.02.2022 00:54 6,6 C 6,1 C 3,9 C 96 % 1013,5 hPa 0,0 l/m 0 min 0 min 0 W/m 6,4 km/h (2 Bft) 97,83 %
04.02.2022 00:56 6,6 C 6,1 C 3,9 C 96 % 1013,5 hPa 0,0 l/m 0 min 0 min 0 W/m 6,4 km/h (2 Bft) 97,87 %
04.02.2022 00:58 6,6 C 6,1 C 3,9 C 96 % 1013,5 hPa 0,0 l/m 0 min 0 min 0 W/m 6,4 km/h (2 Bft) 97,87 %
04.02.2022 01:00 6,6 C 6,1 C 3,9 C 96 % 1013,5 hPa 0,0 l/m 0 min 0 min 0 W/m 6,4 km/h (2 Bft) 97,87 %
04.02.2022 01:02 6,6 C 6,1 C 3,9 C 96 % 1013,5 hPa 0,0 l/m 0 min 0 min 0 W/m 6,4 km/h (2 Bft) 97,87 %
04.02.2022 01:04 6,6 C 6,1 C 3,9 C 96 % 1013,5 hPa 0,0 l/m 0 min 0 min 0 W/m 9,7 km/h (2 Bft) 100,00 %
04.02.2022 01:06 6,6 C 6,1 C 3,9 C 96 % 1013,5 hPa 0,0 l/m 0 min 0 min 0 W/m 12,9 km/h (3 Bft) 100,00 %
04.02.2022 01:08 6,6 C 6,1 C 3,9 C 96 % 1013,6 hPa 0,0 l/m 0 min 0 min 0 W/m 12,9 km/h (3 Bft) 100,00 %
04.02.2022 01:10 6,6 C 6,1 C 3,9 C 96 % 1013,6 hPa 0,0 l/m 0 min 0 min 0 W/m 6,4 km/h (2 Bft) 100,00 %
04.02.2022 01:12 6,6 C 6,1 C 3,9 C 96 % 1013,6 hPa 0,0 l/m 0 min 0 min 0 W/m 9,7 km/h (2 Bft) 97,87 %
04.02.2022 01:14 6,6 C 6,1 C 3,9 C 96 % 1013,6 hPa 0,0 l/m 0 min 0 min 0 W/m 6,4 km/h (2 Bft) 100,00 %
04.02.2022 01:16 6,6 C 6,1 C 3,9 C 96 % 1013,6 hPa 0,0 l/m 0 min 0 min 0 W/m 6,4 km/h (2 Bft) 100,00 %
04.02.2022 01:18 6,6 C 6,1 C 3,9 C 96 % 1013,6 hPa 0,0 l/m 0 min 0 min 0 W/m 6,4 km/h (2 Bft) 100,00 %
04.02.2022 01:20 6,6 C 6,1 C 3,9 C 96 % 1013,5 hPa 0,0 l/m 0 min 0 min 0 W/m 9,7 km/h (2 Bft) 100,00 %
04.02.2022 01:22 6,6 C 6,1 C 3,9 C 96 % 1013,6 hPa 0,0 l/m 0 min 0 min 0 W/m 9,7 km/h (2 Bft) 97,87 %
04.02.2022 01:24 6,6 C 6,1 C 3,9 C 96 % 1013,6 hPa 0,0 l/m 0 min 0 min 0 W/m 12,9 km/h (3 Bft) 100,00 %
04.02.2022 01:26 6,6 C 6,1 C 3,9 C 96 % 1013,5 hPa 0,0 l/m 0 min 0 min 0 W/m 12,9 km/h (3 Bft) 100,00 %
04.02.2022 01:28 6,6 C 6,1 C 3,9 C 96 % 1013,5 hPa 0,0 l/m 0 min 0 min 0 W/m 12,9 km/h (3 Bft) 97,87 %
04.02.2022 01:30 6,6 C 6,1 C 3,9 C 96 % 1013,5 hPa 0,0 l/m 0 min 0 min 0 W/m 12,9 km/h (3 Bft) 97,83 %
04.02.2022 01:32 6,6 C 6,1 C 3,9 C 96 % 1013,5 hPa 0,0 l/m 0 min 0 min 0 W/m 6,4 km/h (2 Bft) 97,87 %
04.02.2022 01:34 6,6 C 6,1 C 3,9 C 96 % 1013,5 hPa 0,0 l/m 0 min 0 min 0 W/m 12,9 km/h (3 Bft) 97,87 %
04.02.2022 01:36 6,6 C 6,1 C 3,9 C 96 % 1013,5 hPa 0,0 l/m 0 min 0 min 0 W/m 9,7 km/h (2 Bft) 100,00 %
04.02.2022 01:38 6,6 C 6,1 C 3,9 C 96 % 1013,5 hPa 0,0 l/m 0 min 0 min 0 W/m 9,7 km/h (2 Bft) 97,87 %
04.02.2022 01:40 6,6 C 6,1 C 3,9 C 96 % 1013,6 hPa 0,0 l/m 0 min 0 min 0 W/m 12,9 km/h (3 Bft) 97,87 %
04.02.2022 01:42 6,6 C 6,1 C 3,9 C 96 % 1013,5 hPa 0,0 l/m 0 min 0 min 0 W/m 6,4 km/h (2 Bft) 97,83 %
04.02.2022 01:44 6,6 C 6,1 C 3,9 C 96 % 1013,5 hPa 0,0 l/m 0 min 0 min 0 W/m 6,4 km/h (2 Bft) 97,87 %
04.02.2022 01:46 6,6 C 6,1 C 3,9 C 96 % 1013,5 hPa 0,0 l/m 0 min 0 min 0 W/m 19,3 km/h (3 Bft) 95,74 %
04.02.2022 01:48 6,6 C 6,1 C 3,9 C 96 % 1013,5 hPa 0,0 l/m 0 min 0 min 0 W/m 9,7 km/h (2 Bft) 97,87 %
04.02.2022 01:50 6,6 C 6,1 C 3,9 C 96 % 1013,4 hPa 0,0 l/m 0 min 0 min 0 W/m 12,9 km/h (3 Bft) 97,87 %
04.02.2022 01:52 6,6 C 6,1 C 3,9 C 96 % 1013,4 hPa 0,0 l/m 0 min 0 min 0 W/m 9,7 km/h (2 Bft) 97,87 %
04.02.2022 01:54 6,6 C 6,1 C 3,9 C 96 % 1013,4 hPa 0,0 l/m 0 min 0 min 0 W/m 9,7 km/h (2 Bft) 97,83 %
04.02.2022 01:56 6,6 C 6,1 C 3,9 C 96 % 1013,4 hPa 0,0 l/m 0 min 0 min 0 W/m 3,2 km/h (1 Bft) 95,74 %
04.02.2022 01:58 6,6 C 6,1 C 3,9 C 96 % 1013,4 hPa 0,0 l/m 0 min 0 min 0 W/m 3,2 km/h (1 Bft) 97,87 %
04.02.2022 02:00 6,6 C 6,1 C 3,9 C 96 % 1013,3 hPa 0,0 l/m 0 min 0 min 0 W/m 16,1 km/h (3 Bft) 97,87 %
04.02.2022 02:02 6,7 C 6,1 C 3,9 C 96 % 1013,4 hPa 0,0 l/m 0 min 0 min 0 W/m 16,1 km/h (3 Bft) 97,92 %
04.02.2022 02:04 6,6 C 6,1 C 3,9 C 96 % 1013,4 hPa 0,0 l/m 0 min 0 min 0 W/m 16,1 km/h (3 Bft) 100,00 %
04.02.2022 02:06 6,7 C 6,1 C 3,9 C 96 % 1013,4 hPa 0,0 l/m 0 min 0 min 0 W/m 16,1 km/h (3 Bft) 100,00 %
04.02.2022 02:08 6,7 C 6,1 C 3,9 C 96 % 1013,2 hPa 0,0 l/m 0 min 0 min 0 W/m 22,5 km/h (4 Bft) 100,00 %
04.02.2022 02:10 6,7 C 6,1 C 3,9 C 96 % 1013,3 hPa 0,0 l/m 0 min 0 min 0 W/m 16,1 km/h (3 Bft) 97,14 %
04.02.2022 02:12 6,7 C 6,1 C 3,9 C 95 % 1013,2 hPa 0,0 l/m 0 min 0 min 0 W/m 6,4 km/h (2 Bft) 97,87 %
04.02.2022 02:14 6,7 C 6,1 C 3,9 C 95 % 1013,2 hPa 0,0 l/m 0 min 0 min 0 W/m 12,9 km/h (3 Bft) 98,31 %
04.02.2022 02:16 6,7 C 6,1 C 3,9 C 95 % 1013,2 hPa 0,0 l/m 0 min 0 min 0 W/m 9,7 km/h (2 Bft) 100,00 %
04.02.2022 02:18 6,7 C 6,1 C 3,9 C 96 % 1013,2 hPa 0,0 l/m 0 min 0 min 0 W/m 12,9 km/h (3 Bft) 100,00 %
04.02.2022 02:20 6,7 C 6,1 C 3,9 C 96 % 1013,2 hPa 0,0 l/m 0 min 0 min 0 W/m 16,1 km/h (3 Bft) 97,14 %
04.02.2022 02:22 6,7 C 6,1 C 3,9 C 96 % 1013,2 hPa 0,0 l/m 0 min 0 min 0 W/m 12,9 km/h (3 Bft) 100,00 %
04.02.2022 02:24 6,7 C 6,1 C 3,9 C 95 % 1013,3 hPa 0,0 l/m 0 min 0 min 0 W/m 9,7 km/h (2 Bft) 97,87 %
04.02.2022 02:26 6,7 C 6,1 C 3,9 C 95 % 1013,2 hPa 0,0 l/m 0 min 0 min 0 W/m 19,3 km/h (3 Bft) 100,00 %
04.02.2022 02:28 6,7 C 6,1 C 3,9 C 95 % 1013,2 hPa 0,0 l/m 0 min 0 min 0 W/m 16,1 km/h (3 Bft) 100,00 %
04.02.2022 02:30 6,7 C 6,1 C 3,9 C 95 % 1013,3 hPa 0,0 l/m 0 min 0 min 0 W/m 12,9 km/h (3 Bft) 97,83 %
04.02.2022 02:32 6,7 C 6,1 C 3,9 C 95 % 1013,2 hPa 0,0 l/m 0 min 0 min 0 W/m 6,4 km/h (2 Bft) 100,00 %
04.02.2022 02:34 6,7 C 6,1 C 3,9 C 95 % 1013,1 hPa 0,0 l/m 0 min 0 min 0 W/m 12,9 km/h (3 Bft) 100,00 %
04.02.2022 02:36 6,7 C 6,1 C 3,9 C 95 % 1013,2 hPa 0,0 l/m 0 min 0 min 0 W/m 25,7 km/h (4 Bft) 100,00 %
04.02.2022 02:38 6,7 C 6,1 C 3,9 C 95 % 1013,2 hPa 0,0 l/m 0 min 0 min 0 W/m 16,1 km/h (3 Bft) 100,00 %
04.02.2022 02:40 6,7 C 6,1 C 3,9 C 95 % 1013,2 hPa 0,0 l/m 0 min 0 min 0 W/m 16,1 km/h (3 Bft) 42,86 %
04.02.2022 02:42 6,7 C 6,1 C 3,9 C 95 % 1013,1 hPa 0,0 l/m 0 min 0 min 0 W/m 19,3 km/h (3 Bft) 94,44 %
04.02.2022 02:44 6,7 C 6,1 C 3,9 C 95 % 1013,0 hPa 0,0 l/m 0 min 0 min 0 W/m 16,1 km/h (3 Bft) 100,00 %
04.02.2022 02:46 6,7 C 6,1 C 3,9 C 95 % 1013,1 hPa 0,0 l/m 0 min 0 min 0 W/m 22,5 km/h (4 Bft) 100,00 %
04.02.2022 02:48 6,7 C 6,1 C 3,9 C 95 % 1013,1 hPa 0,0 l/m 0 min 0 min 0 W/m 12,9 km/h (3 Bft) 100,00 %
04.02.2022 02:50 6,8 C 6,1 C 3,9 C 95 % 1012,9 hPa 0,0 l/m 0 min 0 min 0 W/m 12,9 km/h (3 Bft) 100,00 %
04.02.2022 02:52 6,8 C 6,1 C 3,9 C 95 % 1013,0 hPa 0,0 l/m 0 min 0 min 0 W/m 12,9 km/h (3 Bft) 97,87 %
04.02.2022 02:54 6,8 C 6,1 C 3,9 C 95 % 1013,0 hPa 0,0 l/m 0 min 0 min 0 W/m 19,3 km/h (3 Bft) 97,83 %
04.02.2022 02:56 6,8 C 6,1 C 3,9 C 94 % 1013,0 hPa 0,0 l/m 0 min 0 min 0 W/m 16,1 km/h (3 Bft) 97,87 %
04.02.2022 02:58 6,8 C 6,1 C 3,9 C 95 % 1013,0 hPa 0,0 l/m 0 min 0 min 0 W/m 19,3 km/h (3 Bft) 95,74 %
04.02.2022 03:00 6,8 C 6,1 C 3,9 C 95 % 1012,9 hPa 0,0 l/m 0 min 0 min 0 W/m 16,1 km/h (3 Bft) 95,74 %
04.02.2022 03:02 6,8 C 6,1 C 3,9 C 94 % 1012,9 hPa 0,0 l/m 0 min 0 min 0 W/m 9,7 km/h (2 Bft) 91,67 %
04.02.2022 03:04 6,8 C 6,1 C 3,9 C 94 % 1012,9 hPa 0,0 l/m 0 min 0 min 0 W/m 22,5 km/h (4 Bft) 93,62 %
04.02.2022 03:06 6,8 C 6,1 C 3,9 C 94 % 1012,9 hPa 0,0 l/m 0 min 0 min 0 W/m 12,9 km/h (3 Bft) 95,65 %
04.02.2022 03:08 6,8 C 6,1 C 3,9 C 94 % 1012,9 hPa 0,0 l/m 0 min 0 min 0 W/m 16,1 km/h (3 Bft) 95,74 %
04.02.2022 03:10 6,8 C 6,1 C 3,9 C 94 % 1012,8 hPa 0,0 l/m 0 min 0 min 0 W/m 16,1 km/h (3 Bft) 95,74 %
04.02.2022 03:12 6,8 C 6,1 C 3,9 C 94 % 1012,8 hPa 0,0 l/m 0 min 0 min 0 W/m 16,1 km/h (3 Bft) 95,74 %
04.02.2022 03:14 6,8 C 6,1 C 3,9 C 94 % 1012,8 hPa 0,0 l/m 0 min 0 min 0 W/m 16,1 km/h (3 Bft) 93,62 %
04.02.2022 03:16 6,8 C 6,1 C 3,9 C 94 % 1012,8 hPa 0,0 l/m 0 min 0 min 0 W/m 16,1 km/h (3 Bft) 93,48 %
04.02.2022 03:18 6,8 C 6,1 C 3,9 C 94 % 1012,8 hPa 0,0 l/m 0 min 0 min 0 W/m 12,9 km/h (3 Bft) 93,62 %
04.02.2022 03:20 6,8 C 6,1 C 3,9 C 94 % 1012,8 hPa 0,0 l/m 0 min 0 min 0 W/m 19,3 km/h (3 Bft) 95,74 %
04.02.2022 03:22 6,8 C 6,1 C 3,9 C 94 % 1012,8 hPa 0,0 l/m 0 min 0 min 0 W/m 19,3 km/h (3 Bft) 95,74 %
04.02.2022 03:24 6,8 C 6,1 C 3,9 C 94 % 1012,8 hPa 0,0 l/m 0 min 0 min 0 W/m 16,1 km/h (3 Bft) 93,62 %
04.02.2022 03:26 6,8 C 6,1 C 3,9 C 94 % 1012,8 hPa 0,0 l/m 0 min 0 min 0 W/m 16,1 km/h (3 Bft) 95,74 %
04.02.2022 03:28 6,8 C 6,1 C 3,9 C 94 % 1012,8 hPa 0,0 l/m 0 min 0 min 0 W/m 16,1 km/h (3 Bft) 93,48 %
04.02.2022 03:30 6,8 C 6,1 C 3,9 C 94 % 1012,9 hPa 0,0 l/m 0 min 0 min 0 W/m 16,1 km/h (3 Bft) 95,74 %
04.02.2022 03:32 6,8 C 6,1 C 3,9 C 94 % 1012,9 hPa 0,0 l/m 0 min 0 min 0 W/m 22,5 km/h (4 Bft) 93,75 %
04.02.2022 03:34 6,8 C 6,1 C 3,9 C 94 % 1012,9 hPa 0,0 l/m 0 min 0 min 0 W/m 19,3 km/h (3 Bft) 91,49 %
04.02.2022 03:36 6,8 C 6,1 C 3,9 C 94 % 1012,9 hPa 0,0 l/m 0 min 0 min 0 W/m 22,5 km/h (4 Bft) 87,23 %
04.02.2022 03:38 6,8 C 6,1 C 3,9 C 94 % 1012,9 hPa 0,0 l/m 0 min 0 min 0 W/m 22,5 km/h (4 Bft) 93,62 %
04.02.2022 03:40 6,8 C 6,1 C 3,9 C 93 % 1012,9 hPa 0,0 l/m 0 min 0 min 0 W/m 19,3 km/h (3 Bft) 93,48 %
04.02.2022 03:42 6,8 C 6,1 C 3,9 C 93 % 1012,8 hPa 0,0 l/m 0 min 0 min 0 W/m 12,9 km/h (3 Bft) 95,74 %
04.02.2022 03:44 6,8 C 6,1 C 3,9 C 93 % 1013,0 hPa 0,0 l/m 0 min 0 min 0 W/m 22,5 km/h (4 Bft) 97,87 %
04.02.2022 03:46 6,9 C 6,1 C 3,9 C 93 % 1012,9 hPa 0,0 l/m 0 min 0 min 0 W/m 16,1 km/h (3 Bft) 95,74 %
04.02.2022 03:48 6,8 C 6,1 C 3,9 C 93 % 1012,9 hPa 0,0 l/m 0 min 0 min 0 W/m 22,5 km/h (4 Bft) 97,87 %
04.02.2022 03:50 6,9 C 6,1 C 3,9 C 93 % 1012,9 hPa 0,0 l/m 0 min 0 min 0 W/m 25,7 km/h (4 Bft) 95,74 %
04.02.2022 03:52 6,9 C 6,1 C 3,9 C 93 % 1012,8 hPa 0,0 l/m 0 min 0 min 0 W/m 16,1 km/h (3 Bft) 97,83 %
04.02.2022 03:54 6,9 C 6,1 C 3,9 C 93 % 1012,8 hPa 0,0 l/m 0 min 0 min 0 W/m 22,5 km/h (4 Bft) 97,87 %
04.02.2022 03:56 6,9 C 6,1 C 3,9 C 93 % 1012,8 hPa 0,0 l/m 0 min 0 min 0 W/m 16,1 km/h (3 Bft) 97,87 %
04.02.2022 03:58 6,9 C 6,1 C 3,9 C 93 % 1012,8 hPa 0,0 l/m 0 min 0 min 0 W/m 22,5 km/h (4 Bft) 95,74 %
04.02.2022 04:00 6,9 C 6,1 C 3,9 C 93 % 1012,8 hPa 0,0 l/m 0 min 0 min 0 W/m 22,5 km/h (4 Bft) 100,00 %
04.02.2022 04:02 6,9 C 6,1 C 3,9 C 93 % 1012,7 hPa 0,0 l/m 0 min 0 min 0 W/m 12,9 km/h (3 Bft) 100,00 %
04.02.2022 04:04 6,9 C 6,1 C 3,9 C 93 % 1012,7 hPa 0,0 l/m 0 min 0 min 0 W/m 16,1 km/h (3 Bft) 100,00 %
04.02.2022 04:09 6,9 C 6,1 C 3,9 C 93 % 1012,6 hPa 0,0 l/m 0 min 0 min 0 W/m 19,3 km/h (3 Bft) 100,00 %
04.02.2022 04:10 6,9 C 6,1 C 3,9 C 93 % 1012,6 hPa 0,0 l/m 0 min 0 min 0 W/m 9,7 km/h (2 Bft) 100,00 %
04.02.2022 04:12 6,9 C 6,1 C 3,9 C 93 % 1012,6 hPa 0,0 l/m 0 min 0 min 0 W/m 19,3 km/h (3 Bft) 100,00 %
04.02.2022 04:14 6,9 C 6,1 C 3,9 C 93 % 1012,6 hPa 0,0 l/m 0 min 0 min 0 W/m 19,3 km/h (3 Bft) 97,87 %
04.02.2022 04:16 6,9 C 6,1 C 3,9 C 93 % 1012,5 hPa 0,0 l/m 0 min 0 min 0 W/m 12,9 km/h (3 Bft) 100,00 %
04.02.2022 04:18 6,9 C 6,1 C 3,9 C 93 % 1012,5 hPa 0,0 l/m 0 min 0 min 0 W/m 12,9 km/h (3 Bft) 100,00 %
04.02.2022 04:20 6,9 C 6,1 C 3,9 C 93 % 1012,6 hPa 0,0 l/m 0 min 0 min 0 W/m 22,5 km/h (4 Bft) 100,00 %
04.02.2022 04:22 6,9 C 6,1 C 3,9 C 93 % 1012,5 hPa 0,0 l/m 0 min 0 min 0 W/m 12,9 km/h (3 Bft) 100,00 %
04.02.2022 04:24 6,9 C 6,1 C 3,9 C 93 % 1012,5 hPa 0,0 l/m 0 min 0 min 0 W/m 22,5 km/h (4 Bft) 100,00 %
04.02.2022 04:26 6,9 C 6,1 C 3,9 C 93 % 1012,5 hPa 0,0 l/m 0 min 0 min 0 W/m 19,3 km/h (3 Bft) 100,00 %
04.02.2022 04:28 6,9 C 6,1 C 3,9 C 93 % 1012,4 hPa 0,0 l/m 0 min 0 min 0 W/m 22,5 km/h (4 Bft) 100,00 %
04.02.2022 04:30 6,9 C 6,1 C 3,9 C 93 % 1012,4 hPa 0,0 l/m 0 min 0 min 0 W/m 16,1 km/h (3 Bft) 100,00 %
04.02.2022 04:32 6,9 C 6,1 C 3,9 C 93 % 1012,4 hPa 0,0 l/m 0 min 0 min 0 W/m 19,3 km/h (3 Bft) 100,00 %
04.02.2022 04:34 6,9 C 6,1 C 3,9 C 93 % 1012,5 hPa 0,0 l/m 0 min 0 min 0 W/m 25,7 km/h (4 Bft) 100,00 %
04.02.2022 04:36 6,9 C 6,1 C 3,9 C 92 % 1012,4 hPa 0,0 l/m 0 min 0 min 0 W/m 12,9 km/h (3 Bft) 100,00 %
04.02.2022 04:38 6,9 C 6,1 C 3,9 C 92 % 1012,5 hPa 0,0 l/m 0 min 0 min 0 W/m 16,1 km/h (3 Bft) 100,00 %
04.02.2022 04:40 6,9 C 6,1 C 3,9 C 92 % 1012,5 hPa 0,0 l/m 0 min 0 min 0 W/m 19,3 km/h (3 Bft) 100,00 %
04.02.2022 04:42 6,9 C 6,1 C 3,9 C 92 % 1012,5 hPa 0,0 l/m 0 min 0 min 0 W/m 22,5 km/h (4 Bft) 100,00 %
04.02.2022 04:44 6,9 C 6,7 C 3,9 C 92 % 1012,4 hPa 0,0 l/m 0 min 0 min 0 W/m 16,1 km/h (3 Bft) 100,00 %
04.02.2022 04:46 6,9 C 6,7 C 3,9 C 92 % 1012,3 hPa 0,0 l/m 0 min 0 min 0 W/m 19,3 km/h (3 Bft) 97,87 %
04.02.2022 04:48 6,9 C 6,7 C 3,9 C 92 % 1012,3 hPa 0,0 l/m 0 min 0 min 0 W/m 22,5 km/h (4 Bft) 100,00 %
04.02.2022 04:50 7,0 C 6,7 C 3,9 C 92 % 1012,4 hPa 0,0 l/m 0 min 0 min 0 W/m 22,5 km/h (4 Bft) 100,00 %
04.02.2022 04:52 6,9 C 6,7 C 3,9 C 92 % 1012,3 hPa 0,0 l/m 0 min 0 min 0 W/m 16,1 km/h (3 Bft) 100,00 %
04.02.2022 04:54 7,0 C 6,1 C 3,9 C 92 % 1012,3 hPa 0,0 l/m 0 min 0 min 0 W/m 16,1 km/h (3 Bft) 97,87 %
04.02.2022 04:56 7,0 C 6,1 C 3,9 C 92 % 1012,3 hPa 0,0 l/m 0 min 0 min 0 W/m 19,3 km/h (3 Bft) 100,00 %
04.02.2022 04:58 7,0 C 6,7 C 3,9 C 92 % 1012,3 hPa 0,0 l/m 0 min 0 min 0 W/m 16,1 km/h (3 Bft) 100,00 %
04.02.2022 05:00 7,0 C 6,7 C 3,9 C 92 % 1012,3 hPa 0,0 l/m 0 min 0 min 0 W/m 22,5 km/h (4 Bft) 100,00 %
04.02.2022 05:02 7,0 C 6,7 C 3,9 C 92 % 1012,3 hPa 0,0 l/m 0 min 0 min 0 W/m 19,3 km/h (3 Bft) 100,00 %
04.02.2022 05:04 7,0 C 6,7 C 3,9 C 92 % 1012,3 hPa 0,0 l/m 0 min 0 min 0 W/m 25,7 km/h (4 Bft) 97,87 %
04.02.2022 05:06 7,0 C 6,7 C 3,9 C 92 % 1012,3 hPa 0,0 l/m 0 min 0 min 0 W/m 12,9 km/h (3 Bft) 100,00 %
04.02.2022 05:08 7,1 C 6,7 C 3,9 C 92 % 1012,3 hPa 0,0 l/m 0 min 0 min 0 W/m 22,5 km/h (4 Bft) 100,00 %
04.02.2022 05:10 7,1 C 6,7 C 3,9 C 92 % 1012,2 hPa 0,0 l/m 0 min 0 min 0 W/m 16,1 km/h (3 Bft) 97,87 %
04.02.2022 05:12 7,0 C 6,7 C 3,9 C 92 % 1012,3 hPa 0,0 l/m 0 min 0 min 0 W/m 19,3 km/h (3 Bft) 97,87 %
04.02.2022 05:14 7,1 C 6,7 C 3,9 C 92 % 1012,2 hPa 0,0 l/m 0 min 0 min 0 W/m 12,9 km/h (3 Bft) 100,00 %
04.02.2022 05:16 7,1 C 6,7 C 3,9 C 92 % 1012,2 hPa 0,0 l/m 0 min 0 min 0 W/m 16,1 km/h (3 Bft) 97,87 %
04.02.2022 05:18 7,1 C 6,7 C 3,9 C 91 % 1012,2 hPa 0,0 l/m 0 min 0 min 0 W/m 22,5 km/h (4 Bft) 97,87 %
04.02.2022 05:20 7,1 C 6,7 C 3,9 C 91 % 1012,3 hPa 0,0 l/m 0 min 0 min 0 W/m 29,0 km/h (5 Bft) 100,00 %
04.02.2022 05:22 7,1 C 6,7 C 3,9 C 91 % 1012,3 hPa 0,0 l/m 0 min 0 min 0 W/m 16,1 km/h (3 Bft) 100,00 %
04.02.2022 05:24 7,1 C 6,7 C 3,9 C 91 % 1012,3 hPa 0,0 l/m 0 min 0 min 0 W/m 19,3 km/h (3 Bft) 100,00 %
04.02.2022 05:26 7,1 C 6,7 C 3,9 C 91 % 1012,3 hPa 0,0 l/m 0 min 0 min 0 W/m 16,1 km/h (3 Bft) 97,83 %
04.02.2022 05:28 7,1 C 6,7 C 3,9 C 91 % 1012,3 hPa 0,0 l/m 0 min 0 min 0 W/m 16,1 km/h (3 Bft) 95,74 %
04.02.2022 05:30 7,1 C 6,7 C 3,9 C 91 % 1012,4 hPa 0,0 l/m 0 min 0 min 0 W/m 16,1 km/h (3 Bft) 97,87 %
04.02.2022 05:32 7,1 C 6,7 C 3,9 C 91 % 1012,4 hPa 0,0 l/m 0 min 0 min 0 W/m 19,3 km/h (3 Bft) 97,30 %
04.02.2022 05:34 7,1 C 6,7 C 3,9 C 91 % 1012,4 hPa 0,0 l/m 0 min 0 min 0 W/m 16,1 km/h (3 Bft) 96,61 %
04.02.2022 05:36 7,1 C 6,7 C 3,9 C 91 % 1012,4 hPa 0,0 l/m 0 min 0 min 0 W/m 16,1 km/h (3 Bft) 97,87 %
04.02.2022 05:38 7,1 C 6,7 C 3,9 C 91 % 1012,4 hPa 0,0 l/m 0 min 0 min 0 W/m 22,5 km/h (4 Bft) 95,65 %
04.02.2022 05:40 7,1 C 6,7 C 3,9 C 91 % 1012,3 hPa 0,0 l/m 0 min 0 min 0 W/m 16,1 km/h (3 Bft) 93,62 %
04.02.2022 05:42 7,1 C 6,7 C 3,9 C 91 % 1012,3 hPa 0,0 l/m 0 min 0 min 0 W/m 16,1 km/h (3 Bft) 95,74 %
04.02.2022 05:44 7,1 C 6,7 C 3,9 C 91 % 1012,3 hPa 0,0 l/m 0 min 0 min 0 W/m 12,9 km/h (3 Bft) 93,62 %
04.02.2022 05:46 7,1 C 6,7 C 3,9 C 91 % 1012,4 hPa 0,0 l/m 0 min 0 min 0 W/m 16,1 km/h (3 Bft) 88,57 %
04.02.2022 05:48 7,1 C 6,7 C 3,9 C 91 % 1012,3 hPa 0,0 l/m 0 min 0 min 0 W/m 22,5 km/h (4 Bft) 91,49 %
04.02.2022 05:50 7,2 C 6,7 C 3,9 C 91 % 1012,3 hPa 0,0 l/m 0 min 0 min 0 W/m 16,1 km/h (3 Bft) 93,62 %
04.02.2022 05:52 7,1 C 6,7 C 3,9 C 91 % 1012,3 hPa 0,0 l/m 0 min 0 min 0 W/m 19,3 km/h (3 Bft) 93,48 %
04.02.2022 05:54 7,2 C 6,7 C 3,9 C 91 % 1012,3 hPa 0,0 l/m 0 min 0 min 0 W/m 22,5 km/h (4 Bft) 91,49 %
04.02.2022 05:56 7,2 C 6,7 C 3,9 C 91 % 1012,3 hPa 0,0 l/m 0 min 0 min 0 W/m 12,9 km/h (3 Bft) 91,49 %
04.02.2022 05:58 7,2 C 6,7 C 3,9 C 91 % 1012,3 hPa 0,0 l/m 0 min 0 min 0 W/m 16,1 km/h (3 Bft) 91,49 %
04.02.2022 06:00 7,2 C 6,7 C 3,9 C 91 % 1012,3 hPa 0,0 l/m 0 min 0 min 0 W/m 16,1 km/h (3 Bft) 95,74 %
04.02.2022 06:02 7,2 C 6,7 C 3,9 C 91 % 1012,3 hPa 0,0 l/m 0 min 0 min 0 W/m 22,5 km/h (4 Bft) 93,62 %
04.02.2022 06:04 7,2 C 6,7 C 3,9 C 91 % 1012,3 hPa 0,0 l/m 0 min 0 min 0 W/m 16,1 km/h (3 Bft) 93,48 %
04.02.2022 06:08 7,2 C 6,7 C 3,9 C 91 % 1012,2 hPa 0,0 l/m 0 min 0 min 0 W/m 16,1 km/h (3 Bft) 95,00 %
04.02.2022 06:10 7,2 C 6,7 C 3,9 C 90 % 1012,2 hPa 0,0 l/m 0 min 0 min 0 W/m 12,9 km/h (3 Bft) 95,74 %
04.02.2022 06:12 7,2 C 6,7 C 3,9 C 91 % 1012,2 hPa 0,0 l/m 0 min 0 min 0 W/m 25,7 km/h (4 Bft) 93,62 %
04.02.2022 06:14 7,2 C 6,7 C 3,9 C 91 % 1012,1 hPa 0,0 l/m 0 min 0 min 0 W/m 19,3 km/h (3 Bft) 95,65 %
04.02.2022 06:16 7,2 C 6,7 C 3,9 C 90 % 1012,1 hPa 0,0 l/m 0 min 0 min 0 W/m 16,1 km/h (3 Bft) 92,68 %
04.02.2022 06:18 7,2 C 6,7 C 3,9 C 90 % 1012,1 hPa 0,0 l/m 0 min 0 min 0 W/m 22,5 km/h (4 Bft) 95,74 %
04.02.2022 06:20 7,2 C 6,7 C 3,9 C 90 % 1012,0 hPa 0,0 l/m 0 min 0 min 0 W/m 22,5 km/h (4 Bft) 91,49 %
04.02.2022 06:22 7,2 C 6,7 C 3,9 C 90 % 1012,1 hPa 0,0 l/m 0 min 0 min 0 W/m 35,4 km/h (5 Bft) 95,74 %
04.02.2022 06:24 7,2 C 6,7 C 3,9 C 90 % 1012,0 hPa 0,0 l/m 0 min 0 min 0 W/m 19,3 km/h (3 Bft) 98,11 %
04.02.2022 06:26 7,2 C 6,7 C 3,9 C 90 % 1012,0 hPa 0,0 l/m 0 min 0 min 0 W/m 19,3 km/h (3 Bft) 97,83 %
04.02.2022 06:28 7,3 C 6,7 C 3,9 C 90 % 1012,0 hPa 0,0 l/m 0 min 0 min 0 W/m 19,3 km/h (3 Bft) 97,87 %
04.02.2022 06:30 7,3 C 6,7 C 3,9 C 90 % 1012,0 hPa 0,0 l/m 0 min 0 min 0 W/m 29,0 km/h (5 Bft) 95,74 %
04.02.2022 06:32 7,3 C 6,7 C 4,4 C 90 % 1011,9 hPa 0,0 l/m 0 min 0 min 0 W/m 22,5 km/h (4 Bft) 95,12 %
04.02.2022 06:34 7,3 C 6,7 C 4,4 C 90 % 1011,9 hPa 0,0 l/m 0 min 0 min 0 W/m 29,0 km/h (5 Bft) 97,87 %
04.02.2022 06:36 7,3 C 6,7 C 4,4 C 90 % 1012,0 hPa 0,0 l/m 0 min 0 min 0 W/m 22,5 km/h (4 Bft) 98,11 %
04.02.2022 06:38 7,3 C 6,7 C 4,4 C 89 % 1012,0 hPa 0,0 l/m 0 min 0 min 0 W/m 19,3 km/h (3 Bft) 100,00 %
04.02.2022 06:40 7,3 C 6,7 C 4,4 C 89 % 1012,0 hPa 0,0 l/m 0 min 0 min 0 W/m 22,5 km/h (4 Bft) 100,00 %
04.02.2022 06:42 7,3 C 6,7 C 4,4 C 89 % 1012,1 hPa 0,0 l/m 0 min 0 min 0 W/m 12,9 km/h (3 Bft) 47,37 %
04.02.2022 06:44 7,3 C 6,7 C 4,4 C 89 % 1012,0 hPa 0,0 l/m 0 min 0 min 0 W/m 22,5 km/h (4 Bft) 100,00 %
04.02.2022 06:46 7,4 C 6,7 C 4,4 C 89 % 1012,0 hPa 0,0 l/m 0 min 0 min 0 W/m 25,7 km/h (4 Bft) 97,87 %
04.02.2022 06:48 7,4 C 6,7 C 4,4 C 89 % 1012,1 hPa 0,0 l/m 0 min 0 min 0 W/m 25,7 km/h (4 Bft) 100,00 %
04.02.2022 06:50 7,4 C 6,7 C 4,4 C 89 % 1012,0 hPa 0,0 l/m 0 min 0 min 0 W/m 19,3 km/h (3 Bft) 100,00 %
04.02.2022 06:52 7,4 C 6,7 C 4,4 C 89 % 1012,0 hPa 0,0 l/m 0 min 0 min 0 W/m 25,7 km/h (4 Bft) 97,87 %
04.02.2022 06:54 7,4 C 6,7 C 4,4 C 89 % 1012,0 hPa 0,0 l/m 0 min 0 min 0 W/m 12,9 km/h (3 Bft) 100,00 %
04.02.2022 06:56 7,4 C 6,7 C 4,4 C 89 % 1012,0 hPa 0,0 l/m 0 min 0 min 0 W/m 22,5 km/h (4 Bft) 100,00 %
04.02.2022 06:58 7,4 C 6,7 C 4,4 C 89 % 1012,0 hPa 0,0 l/m 0 min 0 min 0 W/m 22,5 km/h (4 Bft) 100,00 %
04.02.2022 07:00 7,4 C 6,7 C 4,4 C 89 % 1012,0 hPa 0,0 l/m 0 min 0 min 0 W/m 25,7 km/h (4 Bft) 100,00 %
04.02.2022 07:02 7,4 C 6,7 C 4,4 C 89 % 1011,9 hPa 0,0 l/m 0 min 0 min 0 W/m 25,7 km/h (4 Bft) 100,00 %
04.02.2022 07:04 7,4 C 6,7 C 4,4 C 89 % 1011,8 hPa 0,0 l/m 0 min 0 min 0 W/m 25,7 km/h (4 Bft) 100,00 %
04.02.2022 07:06 7,4 C 6,7 C 4,4 C 89 % 1011,8 hPa 0,0 l/m 0 min 0 min 0 W/m 29,0 km/h (5 Bft) 100,00 %
04.02.2022 07:08 7,4 C 6,7 C 4,4 C 89 % 1012,0 hPa 0,0 l/m 0 min 0 min 0 W/m 25,7 km/h (4 Bft) 100,00 %
04.02.2022 07:10 7,4 C 6,7 C 4,4 C 89 % 1011,8 hPa 0,0 l/m 0 min 0 min 0 W/m 35,4 km/h (5 Bft) 100,00 %
04.02.2022 07:12 7,4 C 6,7 C 3,9 C 89 % 1011,8 hPa 0,0 l/m 0 min 0 min 0 W/m 22,5 km/h (4 Bft) 95,74 %
04.02.2022 07:14 7,4 C 6,7 C 3,9 C 89 % 1011,8 hPa 0,0 l/m 0 min 0 min 0 W/m 16,1 km/h (3 Bft) 97,83 %
04.02.2022 07:16 7,4 C 6,7 C 3,9 C 89 % 1011,7 hPa 0,0 l/m 0 min 0 min 0 W/m 22,5 km/h (4 Bft) 97,87 %
04.02.2022 07:18 7,4 C 6,7 C 3,9 C 89 % 1011,8 hPa 0,0 l/m 0 min 0 min 0 W/m 22,5 km/h (4 Bft) 97,87 %
04.02.2022 07:20 7,4 C 6,7 C 3,9 C 89 % 1011,8 hPa 0,0 l/m 0 min 0 min 0 W/m 19,3 km/h (3 Bft) 97,87 %
04.02.2022 07:22 7,4 C 6,7 C 4,4 C 89 % 1011,8 hPa 0,0 l/m 0 min 0 min 0 W/m 25,7 km/h (4 Bft) 100,00 %
04.02.2022 07:24 7,4 C 6,7 C 4,4 C 89 % 1011,8 hPa 0,0 l/m 0 min 0 min 0 W/m 25,7 km/h (4 Bft) 97,87 %
04.02.2022 07:26 7,4 C 6,7 C 4,4 C 89 % 1011,8 hPa 0,0 l/m 0 min 0 min 0 W/m 22,5 km/h (4 Bft) 95,65 %
04.02.2022 07:28 7,4 C 6,7 C 4,4 C 89 % 1011,9 hPa 0,0 l/m 0 min 0 min 0 W/m 29,0 km/h (5 Bft) 97,87 %
04.02.2022 07:30 7,4 C 6,7 C 4,4 C 89 % 1011,8 hPa 0,0 l/m 0 min 0 min 0 W/m 25,7 km/h (4 Bft) 97,87 %
04.02.2022 07:32 7,4 C 6,7 C 3,9 C 89 % 1011,9 hPa 0,0 l/m 0 min 0 min 0 W/m 16,1 km/h (3 Bft) 95,74 %
04.02.2022 07:34 7,4 C 6,7 C 3,9 C 89 % 1011,8 hPa 0,0 l/m 0 min 0 min 0 W/m 19,3 km/h (3 Bft) 95,74 %
04.02.2022 07:36 7,4 C 6,7 C 3,9 C 89 % 1011,9 hPa 0,0 l/m 0 min 0 min 0 W/m 19,3 km/h (3 Bft) 97,87 %
04.02.2022 07:38 7,4 C 6,7 C 4,4 C 89 % 1011,9 hPa 0,0 l/m 0 min 0 min 0 W/m 25,7 km/h (4 Bft) 97,83 %
04.02.2022 07:40 7,4 C 6,7 C 3,9 C 89 % 1011,8 hPa 0,0 l/m 0 min 0 min 0 W/m 19,3 km/h (3 Bft) 97,87 %
04.02.2022 07:42 7,4 C 6,7 C 3,9 C 89 % 1011,8 hPa 0,0 l/m 0 min 0 min 0 W/m 25,7 km/h (4 Bft) 97,87 %
04.02.2022 07:44 7,4 C 6,7 C 3,9 C 89 % 1011,8 hPa 0,0 l/m 0 min 0 min 0 W/m 25,7 km/h (4 Bft) 95,74 %
04.02.2022 07:46 7,4 C 6,7 C 3,9 C 89 % 1011,8 hPa 0,0 l/m 0 min 0 min 0 W/m 19,3 km/h (3 Bft) 97,87 %
04.02.2022 07:48 7,4 C 6,7 C 3,9 C 89 % 1011,8 hPa 0,0 l/m 0 min 0 min 0 W/m 22,5 km/h (4 Bft) 97,87 %
04.02.2022 07:50 7,4 C 6,7 C 3,9 C 89 % 1011,7 hPa 0,0 l/m 0 min 0 min 0 W/m 19,3 km/h (3 Bft) 97,83 %
04.02.2022 07:52 7,4 C 6,7 C 3,9 C 89 % 1011,8 hPa 0,0 l/m 0 min 0 min 0 W/m 25,7 km/h (4 Bft) 97,87 %
04.02.2022 07:54 7,4 C 6,7 C 3,9 C 89 % 1011,8 hPa 0,0 l/m 0 min 0 min 0 W/m 22,5 km/h (4 Bft) 97,87 %
04.02.2022 07:56 7,4 C 6,7 C 3,9 C 90 % 1011,8 hPa 0,0 l/m 0 min 0 min 0 W/m 19,3 km/h (3 Bft) 97,87 %
04.02.2022 07:58 7,4 C 6,7 C 4,4 C 90 % 1011,9 hPa 0,0 l/m 0 min 0 min 0 W/m 22,5 km/h (4 Bft) 97,87 %
04.02.2022 08:00 7,4 C 6,7 C 4,4 C 90 % 1011,9 hPa 0,0 l/m 0 min 0 min 0 W/m 25,7 km/h (4 Bft) 97,87 %
04.02.2022 08:02 7,4 C 6,7 C 4,4 C 90 % 1011,9 hPa 0,0 l/m 0 min 0 min 0 W/m 32,2 km/h (5 Bft) 100,00 %
04.02.2022 08:04 7,4 C 6,7 C 4,4 C 90 % 1012,0 hPa 0,0 l/m 0 min 0 min 0 W/m 35,4 km/h (5 Bft) 100,00 %
04.02.2022 08:06 7,4 C 6,7 C 4,4 C 90 % 1012,0 hPa 0,0 l/m 0 min 0 min 0 W/m 19,3 km/h (3 Bft) 97,87 %
04.02.2022 08:08 7,4 C 6,7 C 4,4 C 90 % 1012,0 hPa 0,0 l/m 0 min 0 min 0 W/m 22,5 km/h (4 Bft) 100,00 %
04.02.2022 08:10 7,4 C 6,7 C 3,9 C 90 % 1012,0 hPa 0,0 l/m 0 min 0 min 0 W/m 16,1 km/h (3 Bft) 100,00 %
04.02.2022 08:12 7,4 C 6,7 C 3,9 C 90 % 1011,9 hPa 0,0 l/m 0 min 0 min 1 W/m 19,3 km/h (3 Bft) 100,00 %
04.02.2022 08:14 7,4 C 6,7 C 3,9 C 90 % 1011,9 hPa 0,0 l/m 0 min 0 min 6 W/m 29,0 km/h (5 Bft) 97,83 %
04.02.2022 08:16 7,4 C 6,7 C 3,9 C 90 % 1011,8 hPa 0,0 l/m 0 min 0 min 7 W/m 25,7 km/h (4 Bft) 97,87 %
04.02.2022 08:18 7,4 C 6,7 C 3,9 C 90 % 1011,8 hPa 0,0 l/m 0 min 0 min 9 W/m 25,7 km/h (4 Bft) 100,00 %
04.02.2022 08:20 7,4 C 6,7 C 3,9 C 91 % 1011,8 hPa 0,0 l/m 0 min 0 min 10 W/m 32,2 km/h (5 Bft) 97,87 %
04.02.2022 08:22 7,4 C 6,7 C 3,9 C 91 % 1011,8 hPa 0,0 l/m 0 min 0 min 12 W/m 19,3 km/h (3 Bft) 97,87 %
04.02.2022 08:24 7,4 C 6,7 C 3,9 C 91 % 1011,8 hPa 0,0 l/m 0 min 0 min 12 W/m 19,3 km/h (3 Bft) 97,87 %
04.02.2022 08:26 7,4 C 6,7 C 3,9 C 91 % 1011,8 hPa 0,0 l/m 0 min 0 min 14 W/m 25,7 km/h (4 Bft) 97,83 %
04.02.2022 08:28 7,4 C 6,7 C 3,9 C 91 % 1011,8 hPa 0,0 l/m 0 min 0 min 16 W/m 25,7 km/h (4 Bft) 97,87 %
04.02.2022 08:30 7,4 C 6,7 C 3,9 C 91 % 1011,8 hPa 0,0 l/m 0 min 0 min 20 W/m 25,7 km/h (4 Bft) 97,87 %
04.02.2022 08:32 7,4 C 6,7 C 3,9 C 91 % 1011,8 hPa 0,0 l/m 2 min 0 min 24 W/m 25,7 km/h (4 Bft) 97,87 %
04.02.2022 08:34 7,4 C 6,7 C 3,9 C 91 % 1011,9 hPa 0,0 l/m 2 min 0 min 26 W/m 22,5 km/h (4 Bft) 97,87 %
04.02.2022 08:36 7,4 C 6,7 C 3,9 C 91 % 1011,8 hPa 0,0 l/m 0 min 0 min 22 W/m 29,0 km/h (5 Bft) 95,74 %
04.02.2022 08:38 7,4 C 6,7 C 3,9 C 91 % 1011,9 hPa 0,0 l/m 0 min 0 min 18 W/m 25,7 km/h (4 Bft) 95,65 %
04.02.2022 08:40 7,4 C 6,7 C 3,9 C 91 % 1011,9 hPa 0,0 l/m 0 min 0 min 18 W/m 32,2 km/h (5 Bft) 93,62 %
04.02.2022 08:42 7,3 C 6,7 C 3,9 C 92 % 1011,8 hPa 0,0 l/m 0 min 0 min 19 W/m 41,8 km/h (6 Bft) 95,74 %
04.02.2022 08:44 7,3 C 6,7 C 3,9 C 92 % 1011,9 hPa 0,0 l/m 0 min 0 min 22 W/m 32,2 km/h (5 Bft) 95,74 %
04.02.2022 08:46 7,3 C 6,7 C 4,4 C 92 % 1011,9 hPa 0,0 l/m 0 min 0 min 22 W/m 25,7 km/h (4 Bft) 95,74 %
04.02.2022 08:48 7,3 C 6,7 C 4,4 C 92 % 1011,9 hPa 0,0 l/m 0 min 0 min 22 W/m 32,2 km/h (5 Bft) 95,65 %
04.02.2022 08:50 7,3 C 6,7 C 3,9 C 92 % 1011,8 hPa 0,0 l/m 0 min 0 min 22 W/m 19,3 km/h (3 Bft) 93,62 %
04.02.2022 08:52 7,3 C 6,7 C 3,9 C 92 % 1011,8 hPa 0,0 l/m 0 min 0 min 33 W/m 19,3 km/h (3 Bft) 95,74 %
04.02.2022 08:54 7,3 C 6,7 C 3,9 C 92 % 1011,7 hPa 0,0 l/m 0 min 0 min 42 W/m 16,1 km/h (3 Bft) 95,74 %
04.02.2022 08:56 7,3 C 6,7 C 3,9 C 92 % 1011,6 hPa 0,0 l/m 0 min 0 min 40 W/m 29,0 km/h (5 Bft) 95,74 %
04.02.2022 08:58 7,3 C 6,7 C 3,9 C 92 % 1011,6 hPa 0,0 l/m 0 min 0 min 38 W/m 22,5 km/h (4 Bft) 95,74 %
04.02.2022 09:00 7,3 C 6,7 C 3,9 C 92 % 1011,5 hPa 0,0 l/m 0 min 0 min 36 W/m 22,5 km/h (4 Bft) 95,65 %
04.02.2022 09:02 7,3 C 6,7 C 3,9 C 92 % 1011,4 hPa 0,0 l/m 0 min 0 min 33 W/m 25,7 km/h (4 Bft) 95,74 %
04.02.2022 09:04 7,3 C 6,7 C 4,4 C 92 % 1011,4 hPa 0,0 l/m 0 min 0 min 33 W/m 22,5 km/h (4 Bft) 95,74 %
04.02.2022 09:06 7,3 C 6,7 C 4,4 C 92 % 1011,4 hPa 0,0 l/m 0 min 0 min 36 W/m 22,5 km/h (4 Bft) 95,74 %
04.02.2022 09:08 7,3 C 6,7 C 4,4 C 92 % 1011,4 hPa 0,0 l/m 0 min 0 min 39 W/m 16,1 km/h (3 Bft) 97,87 %
04.02.2022 09:10 7,3 C 6,7 C 4,4 C 92 % 1011,4 hPa 0,0 l/m 0 min 0 min 39 W/m 16,1 km/h (3 Bft) 95,74 %
04.02.2022 09:12 7,3 C 6,7 C 4,4 C 92 % 1011,4 hPa 0,0 l/m 0 min 0 min 39 W/m 12,9 km/h (3 Bft) 95,65 %
04.02.2022 09:14 7,3 C 6,7 C 4,4 C 92 % 1011,4 hPa 0,0 l/m 0 min 0 min 42 W/m 22,5 km/h (4 Bft) 97,87 %
04.02.2022 09:16 7,3 C 6,7 C 4,4 C 92 % 1011,4 hPa 0,0 l/m 0 min 0 min 46 W/m 29,0 km/h (5 Bft) 97,87 %
04.02.2022 09:18 7,3 C 7,2 C 4,4 C 92 % 1011,4 hPa 0,0 l/m 0 min 0 min 54 W/m 19,3 km/h (3 Bft) 97,87 %
04.02.2022 09:20 7,4 C 7,2 C 4,4 C 92 % 1011,3 hPa 0,0 l/m 0 min 0 min 56 W/m 32,2 km/h (5 Bft) 97,87 %
04.02.2022 09:22 7,4 C 7,2 C 4,4 C 92 % 1011,4 hPa 0,0 l/m 0 min 0 min 54 W/m 29,0 km/h (5 Bft) 93,62 %
04.02.2022 09:24 7,4 C 7,2 C 4,4 C 92 % 1011,4 hPa 0,0 l/m 0 min 0 min 54 W/m 29,0 km/h (5 Bft) 95,65 %
04.02.2022 09:26 7,4 C 7,2 C 4,4 C 92 % 1011,4 hPa 0,0 l/m 0 min 0 min 48 W/m 19,3 km/h (3 Bft) 95,74 %
04.02.2022 09:28 7,4 C 7,2 C 4,4 C 92 % 1011,4 hPa 0,0 l/m 0 min 0 min 58 W/m 22,5 km/h (4 Bft) 100,00 %
04.02.2022 09:30 7,4 C 7,2 C 4,4 C 92 % 1011,4 hPa 0,0 l/m 0 min 0 min 54 W/m 19,3 km/h (3 Bft) 97,87 %
04.02.2022 09:32 7,5 C 7,2 C 4,4 C 92 % 1011,3 hPa 0,0 l/m 0 min 0 min 47 W/m 29,0 km/h (5 Bft) 98,11 %
04.02.2022 09:34 7,5 C 7,2 C 4,4 C 91 % 1011,4 hPa 0,0 l/m 0 min 0 min 50 W/m 25,7 km/h (4 Bft) 95,65 %
04.02.2022 09:36 7,5 C 7,2 C 4,4 C 91 % 1011,3 hPa 0,0 l/m 0 min 0 min 53 W/m 22,5 km/h (4 Bft) 97,87 %
04.02.2022 09:38 7,6 C 7,2 C 4,4 C 91 % 1011,3 hPa 0,0 l/m 0 min 0 min 53 W/m 19,3 km/h (3 Bft) 95,74 %
04.02.2022 09:40 7,6 C 7,2 C 4,4 C 91 % 1011,3 hPa 0,0 l/m 0 min 0 min 58 W/m 25,7 km/h (4 Bft) 97,87 %
04.02.2022 09:42 7,6 C 7,2 C 4,4 C 91 % 1011,3 hPa 0,0 l/m 0 min 0 min 57 W/m 25,7 km/h (4 Bft) 95,74 %
04.02.2022 09:44 7,6 C 7,2 C 4,4 C 91 % 1011,4 hPa 0,0 l/m 0 min 0 min 62 W/m 29,0 km/h (5 Bft) 97,87 %
04.02.2022 09:46 7,6 C 7,2 C 4,4 C 91 % 1011,4 hPa 0,0 l/m 0 min 0 min 51 W/m 19,3 km/h (3 Bft) 95,65 %
04.02.2022 09:48 7,6 C 7,2 C 4,4 C 91 % 1011,4 hPa 0,0 l/m 0 min 0 min 54 W/m 29,0 km/h (5 Bft) 97,87 %
04.02.2022 09:50 7,6 C 7,2 C 4,4 C 91 % 1011,3 hPa 0,0 l/m 0 min 0 min 41 W/m 32,2 km/h (5 Bft) 97,87 %
04.02.2022 09:52 7,6 C 7,2 C 4,4 C 91 % 1011,2 hPa 0,0 l/m 0 min 0 min 40 W/m 22,5 km/h (4 Bft) 97,87 %
04.02.2022 09:54 7,6 C 7,2 C 4,4 C 91 % 1011,2 hPa 0,0 l/m 0 min 0 min 48 W/m 25,7 km/h (4 Bft) 95,74 %
04.02.2022 09:56 7,6 C 7,2 C 4,4 C 91 % 1011,3 hPa 0,0 l/m 0 min 0 min 46 W/m 38,6 km/h (5 Bft) 100,00 %
04.02.2022 09:58 7,7 C 7,2 C 4,4 C 91 % 1011,2 hPa 0,0 l/m 0 min 0 min 58 W/m 25,7 km/h (4 Bft) 97,83 %
04.02.2022 10:00 7,7 C 7,2 C 4,4 C 91 % 1011,3 hPa 0,0 l/m 0 min 0 min 60 W/m 35,4 km/h (5 Bft) 100,00 %
04.02.2022 10:02 7,6 C 7,2 C 4,4 C 91 % 1011,3 hPa 0,0 l/m 0 min 0 min 67 W/m 19,3 km/h (3 Bft) 95,74 %
04.02.2022 10:04 7,6 C 7,2 C 4,4 C 91 % 1011,2 hPa 0,0 l/m 0 min 0 min 54 W/m 38,6 km/h (5 Bft) 97,56 %
04.02.2022 10:06 7,6 C 7,2 C 4,4 C 92 % 1011,2 hPa 0,0 l/m 0 min 0 min 55 W/m 32,2 km/h (5 Bft) 100,00 %
04.02.2022 10:08 7,6 C 7,2 C 4,4 C 92 % 1011,2 hPa 0,0 l/m 0 min 0 min 72 W/m 25,7 km/h (4 Bft) 100,00 %
04.02.2022 10:10 7,6 C 7,2 C 4,4 C 92 % 1011,2 hPa 0,0 l/m 0 min 0 min 74 W/m 25,7 km/h (4 Bft) 100,00 %
04.02.2022 10:12 7,6 C 7,2 C 4,4 C 92 % 1011,1 hPa 0,0 l/m 0 min 0 min 65 W/m 25,7 km/h (4 Bft) 100,00 %
04.02.2022 10:14 7,6 C 7,2 C 4,4 C 92 % 1011,1 hPa 0,0 l/m 0 min 0 min 68 W/m 29,0 km/h (5 Bft) 100,00 %
04.02.2022 10:16 7,6 C 7,2 C 4,4 C 92 % 1011,1 hPa 0,0 l/m 0 min 0 min 73 W/m 19,3 km/h (3 Bft) 95,74 %
04.02.2022 10:18 7,6 C 7,2 C 4,4 C 92 % 1011,1 hPa 0,0 l/m 0 min 0 min 67 W/m 25,7 km/h (4 Bft) 100,00 %
04.02.2022 10:20 7,6 C 7,2 C 4,4 C 92 % 1011,1 hPa 0,0 l/m 0 min 0 min 66 W/m 29,0 km/h (5 Bft) 100,00 %
04.02.2022 10:22 7,6 C 7,2 C 4,4 C 92 % 1011,0 hPa 0,0 l/m 0 min 0 min 67 W/m 25,7 km/h (4 Bft) 100,00 %
04.02.2022 10:24 7,6 C 7,2 C 3,9 C 92 % 1010,9 hPa 0,0 l/m 0 min 0 min 66 W/m 25,7 km/h (4 Bft) 100,00 %
04.02.2022 10:26 7,6 C 7,2 C 4,4 C 93 % 1010,9 hPa 0,0 l/m 0 min 0 min 70 W/m 29,0 km/h (5 Bft) 97,87 %
04.02.2022 10:28 7,6 C 7,2 C 4,4 C 93 % 1010,9 hPa 0,0 l/m 0 min 0 min 57 W/m 22,5 km/h (4 Bft) 100,00 %
04.02.2022 10:30 7,6 C 7,2 C 4,4 C 93 % 1010,9 hPa 0,0 l/m 0 min 0 min 50 W/m 25,7 km/h (4 Bft) 100,00 %
04.02.2022 10:32 7,6 C 7,2 C 4,4 C 93 % 1010,9 hPa 0,0 l/m 0 min 0 min 50 W/m 25,7 km/h (4 Bft) 100,00 %
04.02.2022 10:34 7,6 C 7,2 C 4,4 C 93 % 1010,9 hPa 0,0 l/m 0 min 0 min 58 W/m 38,6 km/h (5 Bft) 100,00 %
04.02.2022 10:36 7,6 C 7,2 C 4,4 C 93 % 1010,9 hPa 0,0 l/m 0 min 0 min 88 W/m 32,2 km/h (5 Bft) 100,00 %
04.02.2022 10:38 7,6 C 7,2 C 4,4 C 93 % 1010,7 hPa 0,0 l/m 0 min 0 min 90 W/m 25,7 km/h (4 Bft) 100,00 %
04.02.2022 10:40 7,6 C 7,2 C 4,4 C 93 % 1010,7 hPa 0,0 l/m 0 min 0 min 115 W/m 32,2 km/h (5 Bft) 100,00 %
04.02.2022 10:42 7,6 C 7,8 C 5,0 C 93 % 1010,6 hPa 0,0 l/m 0 min 0 min 122 W/m 38,6 km/h (5 Bft) 100,00 %
04.02.2022 10:44 7,7 C 7,8 C 5,0 C 93 % 1010,7 hPa 0,0 l/m 0 min 0 min 94 W/m 22,5 km/h (4 Bft) 100,00 %
04.02.2022 10:46 7,7 C 7,8 C 5,0 C 93 % 1010,7 hPa 0,0 l/m 0 min 0 min 91 W/m 25,7 km/h (4 Bft) 100,00 %
04.02.2022 10:48 7,7 C 7,8 C 5,0 C 93 % 1010,6 hPa 0,0 l/m 0 min 0 min 92 W/m 29,0 km/h (5 Bft) 100,00 %
04.02.2022 10:50 7,8 C 7,8 C 5,0 C 92 % 1010,7 hPa 0,0 l/m 0 min 0 min 97 W/m 32,2 km/h (5 Bft) 97,87 %
04.02.2022 10:52 7,8 C 7,8 C 5,0 C 92 % 1010,7 hPa 0,0 l/m 0 min 0 min 97 W/m 35,4 km/h (5 Bft) 100,00 %
04.02.2022 10:54 7,8 C 7,8 C 5,0 C 92 % 1010,6 hPa 0,0 l/m 0 min 0 min 97 W/m 29,0 km/h (5 Bft) 100,00 %
04.02.2022 10:56 7,9 C 7,8 C 5,0 C 92 % 1010,6 hPa 0,0 l/m 0 min 0 min 93 W/m 29,0 km/h (5 Bft) 97,83 %
04.02.2022 10:58 7,9 C 7,8 C 5,0 C 92 % 1010,6 hPa 0,0 l/m 0 min 0 min 93 W/m 22,5 km/h (4 Bft) 100,00 %
04.02.2022 11:00 7,9 C 7,8 C 5,0 C 91 % 1010,6 hPa 0,0 l/m 0 min 0 min 91 W/m 38,6 km/h (5 Bft) 97,87 %
04.02.2022 11:02 8,0 C 7,8 C 5,0 C 91 % 1010,5 hPa 0,0 l/m 0 min 0 min 86 W/m 35,4 km/h (5 Bft) 100,00 %
04.02.2022 11:04 8,0 C 7,8 C 5,0 C 91 % 1010,6 hPa 0,0 l/m 0 min 0 min 83 W/m 29,0 km/h (5 Bft) 97,87 %
04.02.2022 11:06 8,0 C 7,8 C 5,0 C 91 % 1010,5 hPa 0,0 l/m 0 min 0 min 80 W/m 45,1 km/h (6 Bft) 97,87 %
04.02.2022 11:08 8,1 C 7,8 C 5,0 C 91 % 1010,5 hPa 0,0 l/m 0 min 0 min 75 W/m 41,8 km/h (6 Bft) 95,65 %
04.02.2022 11:10 8,1 C 7,8 C 5,0 C 90 % 1010,4 hPa 0,0 l/m 0 min 0 min 71 W/m 22,5 km/h (4 Bft) 97,87 %
04.02.2022 11:12 8,1 C 7,8 C 5,0 C 90 % 1010,4 hPa 0,0 l/m 0 min 0 min 73 W/m 38,6 km/h (5 Bft) 97,87 %
04.02.2022 11:14 8,1 C 7,8 C 5,0 C 90 % 1010,5 hPa 0,0 l/m 0 min 0 min 82 W/m 29,0 km/h (5 Bft) 95,74 %
04.02.2022 11:16 8,1 C 7,8 C 5,0 C 90 % 1010,4 hPa 0,0 l/m 0 min 0 min 100 W/m 35,4 km/h (5 Bft) 97,87 %
04.02.2022 11:18 8,1 C 7,8 C 5,0 C 90 % 1010,4 hPa 0,0 l/m 0 min 0 min 102 W/m 38,6 km/h (5 Bft) 95,74 %
04.02.2022 11:20 8,1 C 7,8 C 5,0 C 90 % 1010,4 hPa 0,0 l/m 0 min 0 min 98 W/m 35,4 km/h (5 Bft) 95,65 %
04.02.2022 11:22 8,1 C 7,8 C 5,0 C 90 % 1010,3 hPa 0,0 l/m 0 min 0 min 83 W/m 35,4 km/h (5 Bft) 95,74 %
04.02.2022 11:24 8,1 C 7,8 C 5,0 C 90 % 1010,3 hPa 0,0 l/m 0 min 0 min 76 W/m 38,6 km/h (5 Bft) 95,74 %
04.02.2022 11:26 8,1 C 7,8 C 5,0 C 90 % 1010,2 hPa 0,0 l/m 0 min 0 min 75 W/m 51,5 km/h (7 Bft) 93,62 %
04.02.2022 11:28 8,1 C 7,8 C 5,0 C 90 % 1010,2 hPa 0,0 l/m 0 min 0 min 84 W/m 25,7 km/h (4 Bft) 93,62 %
04.02.2022 11:30 8,1 C 7,8 C 5,0 C 90 % 1010,1 hPa 0,0 l/m 0 min 0 min 75 W/m 29,0 km/h (5 Bft) 93,62 %
04.02.2022 11:32 8,1 C 7,8 C 5,0 C 90 % 1010,1 hPa 0,0 l/m 0 min 0 min 72 W/m 25,7 km/h (4 Bft) 93,48 %
04.02.2022 11:34 8,1 C 7,8 C 5,0 C 90 % 1010,1 hPa 0,0 l/m 0 min 0 min 77 W/m 35,4 km/h (5 Bft) 93,62 %
04.02.2022 11:36 8,1 C 7,8 C 5,0 C 90 % 1010,1 hPa 0,0 l/m 0 min 0 min 92 W/m 32,2 km/h (5 Bft) 93,62 %
04.02.2022 11:38 8,1 C 7,8 C 5,0 C 90 % 1010,0 hPa 0,0 l/m 0 min 0 min 110 W/m 45,1 km/h (6 Bft) 93,62 %
04.02.2022 11:40 8,1 C 8,3 C 5,0 C 90 % 1010,0 hPa 0,0 l/m 0 min 0 min 166 W/m 41,8 km/h (6 Bft) 91,49 %
04.02.2022 11:42 8,2 C 8,9 C 5,6 C 90 % 1010,0 hPa 0,0 l/m 2 min 0 min 197 W/m 25,7 km/h (4 Bft) 93,48 %
04.02.2022 11:44 8,3 C 10,0 C 5,6 C 90 % 1010,0 hPa 0,0 l/m 2 min 0 min 265 W/m 22,5 km/h (4 Bft) 95,74 %
04.02.2022 11:46 8,4 C 10,0 C 5,6 C 90 % 1010,0 hPa 0,0 l/m 2 min 0 min 312 W/m 29,0 km/h (5 Bft) 93,62 %
04.02.2022 11:48 8,4 C 9,4 C 5,6 C 90 % 1010,0 hPa 0,0 l/m 2 min 0 min 294 W/m 38,6 km/h (5 Bft) 91,49 %
04.02.2022 11:50 8,5 C 9,4 C 5,6 C 90 % 1010,0 hPa 0,0 l/m 2 min 0 min 209 W/m 29,0 km/h (5 Bft) 87,23 %
04.02.2022 11:52 8,5 C 8,9 C 5,6 C 89 % 1010,0 hPa 0,0 l/m 2 min 0 min 187 W/m 38,6 km/h (5 Bft) 93,62 %
04.02.2022 11:54 8,6 C 8,9 C 5,6 C 89 % 1010,0 hPa 0,0 l/m 0 min 0 min 167 W/m 25,7 km/h (4 Bft) 93,48 %
04.02.2022 11:56 8,6 C 8,9 C 5,6 C 89 % 1010,0 hPa 0,0 l/m 0 min 0 min 166 W/m 35,4 km/h (5 Bft) 93,62 %
04.02.2022 11:58 8,6 C 8,3 C 5,6 C 89 % 1009,9 hPa 0,0 l/m 0 min 0 min 156 W/m 35,4 km/h (5 Bft) 95,74 %
04.02.2022 12:00 8,5 C 8,3 C 5,6 C 89 % 1009,9 hPa 0,0 l/m 0 min 0 min 155 W/m 45,1 km/h (6 Bft) 97,87 %
04.02.2022 12:02 8,4 C 8,3 C 5,6 C 89 % 1009,8 hPa 0,0 l/m 0 min 0 min 177 W/m 35,4 km/h (5 Bft) 97,87 %
04.02.2022 12:04 8,4 C 8,3 C 5,6 C 89 % 1009,8 hPa 0,0 l/m 0 min 0 min 144 W/m 41,8 km/h (6 Bft) 97,87 %
04.02.2022 12:08 8,4 C 8,3 C 5,6 C 89 % 1009,7 hPa 0,0 l/m 0 min 0 min 115 W/m 38,6 km/h (5 Bft) 97,85 %
04.02.2022 12:10 8,4 C 8,3 C 5,6 C 89 % 1009,6 hPa 0,0 l/m 0 min 0 min 137 W/m 38,6 km/h (5 Bft) 97,87 %
04.02.2022 12:12 8,5 C 8,3 C 5,6 C 89 % 1009,5 hPa 0,0 l/m 0 min 0 min 164 W/m 29,0 km/h (5 Bft) 97,87 %
04.02.2022 12:14 8,5 C 8,9 C 5,6 C 88 % 1009,5 hPa 0,0 l/m 2 min 0 min 193 W/m 25,7 km/h (4 Bft) 100,00 %
04.02.2022 12:16 8,6 C 8,9 C 5,6 C 88 % 1009,5 hPa 0,0 l/m 0 min 0 min 185 W/m 29,0 km/h (5 Bft) 100,00 %
04.02.2022 12:18 8,6 C 8,9 C 5,6 C 88 % 1009,4 hPa 0,0 l/m 0 min 0 min 145 W/m 25,7 km/h (4 Bft) 100,00 %
04.02.2022 12:20 8,7 C 8,9 C 5,6 C 88 % 1009,5 hPa 0,0 l/m 0 min 0 min 158 W/m 32,2 km/h (5 Bft) 100,00 %
04.02.2022 12:22 8,7 C 8,9 C 5,6 C 87 % 1009,5 hPa 0,0 l/m 0 min 0 min 110 W/m 35,4 km/h (5 Bft) 100,00 %
04.02.2022 12:24 8,7 C 8,3 C 5,6 C 87 % 1009,5 hPa 0,0 l/m 0 min 0 min 65 W/m 41,8 km/h (6 Bft) 97,87 %
04.02.2022 12:26 8,7 C 8,3 C 5,6 C 86 % 1009,4 hPa 0,0 l/m 0 min 0 min 35 W/m 35,4 km/h (5 Bft) 100,00 %
04.02.2022 12:28 8,7 C 8,3 C 5,0 C 86 % 1009,5 hPa 0,0 l/m 0 min 0 min 42 W/m 35,4 km/h (5 Bft) 100,00 %
04.02.2022 12:30 8,6 C 7,8 C 5,0 C 86 % 1009,4 hPa 0,0 l/m 0 min 0 min 30 W/m 57,9 km/h (7 Bft) 100,00 %
04.02.2022 12:32 8,6 C 7,8 C 5,0 C 86 % 1009,4 hPa 0,0 l/m 0 min 0 min 20 W/m 32,2 km/h (5 Bft) 100,00 %
04.02.2022 12:34 8,5 C 7,8 C 5,0 C 86 % 1009,4 hPa 0,0 l/m 0 min 0 min 30 W/m 38,6 km/h (5 Bft) 100,00 %
04.02.2022 12:36 8,5 C 7,8 C 5,0 C 86 % 1009,3 hPa 0,0 l/m 0 min 0 min 66 W/m 38,6 km/h (5 Bft) 97,87 %
04.02.2022 12:38 8,5 C 7,8 C 5,0 C 87 % 1009,2 hPa 0,0 l/m 0 min 0 min 104 W/m 29,0 km/h (5 Bft) 78,72 %
04.02.2022 12:40 8,5 C 8,3 C 5,0 C 87 % 1009,1 hPa 0,0 l/m 0 min 0 min 112 W/m 25,7 km/h (4 Bft) 78,72 %
04.02.2022 12:42 8,5 C 8,3 C 5,0 C 86 % 1009,2 hPa 0,0 l/m 0 min 0 min 87 W/m 25,7 km/h (4 Bft) 100,00 %
04.02.2022 12:44 8,5 C 7,8 C 5,0 C 86 % 1009,2 hPa 0,0 l/m 0 min 0 min 59 W/m 41,8 km/h (6 Bft) 100,00 %
04.02.2022 12:46 8,5 C 7,8 C 5,0 C 85 % 1009,1 hPa 0,0 l/m 0 min 0 min 42 W/m 29,0 km/h (5 Bft) 100,00 %
04.02.2022 12:48 8,5 C 7,8 C 5,0 C 85 % 1009,0 hPa 0,0 l/m 0 min 0 min 57 W/m 22,5 km/h (4 Bft) 100,00 %
04.02.2022 12:50 8,5 C 7,8 C 5,0 C 85 % 1009,0 hPa 0,0 l/m 0 min 0 min 53 W/m 25,7 km/h (4 Bft) 100,00 %
04.02.2022 12:52 8,6 C 8,3 C 5,0 C 85 % 1008,8 hPa 0,0 l/m 0 min 0 min 60 W/m 25,7 km/h (4 Bft) 95,74 %
04.02.2022 12:54 8,6 C 8,3 C 5,0 C 85 % 1008,8 hPa 0,0 l/m 0 min 0 min 82 W/m 32,2 km/h (5 Bft) 100,00 %
04.02.2022 12:56 8,6 C 8,3 C 5,0 C 85 % 1008,7 hPa 0,0 l/m 0 min 0 min 103 W/m 19,3 km/h (3 Bft) 100,00 %
04.02.2022 12:58 8,6 C 8,3 C 5,0 C 85 % 1008,6 hPa 0,0 l/m 0 min 0 min 108 W/m 29,0 km/h (5 Bft) 95,74 %
04.02.2022 13:00 8,6 C 8,3 C 5,6 C 85 % 1008,5 hPa 0,0 l/m 0 min 0 min 105 W/m 25,7 km/h (4 Bft) 97,87 %
04.02.2022 13:02 8,6 C 8,3 C 5,6 C 85 % 1008,5 hPa 0,0 l/m 0 min 0 min 75 W/m 16,1 km/h (3 Bft) 97,87 %
04.02.2022 13:04 8,6 C 8,3 C 5,6 C 85 % 1008,5 hPa 0,0 l/m 0 min 0 min 67 W/m 29,0 km/h (5 Bft) 100,00 %
04.02.2022 13:06 8,6 C 8,3 C 5,6 C 84 % 1008,5 hPa 0,0 l/m 0 min 0 min 74 W/m 41,8 km/h (6 Bft) 100,00 %
04.02.2022 13:08 8,7 C 8,3 C 5,6 C 84 % 1008,3 hPa 0,0 l/m 0 min 0 min 80 W/m 22,5 km/h (4 Bft) 100,00 %
04.02.2022 13:10 8,7 C 8,3 C 5,6 C 84 % 1008,4 hPa 0,0 l/m 0 min 0 min 83 W/m 25,7 km/h (4 Bft) 100,00 %
04.02.2022 13:12 8,7 C 8,3 C 5,6 C 84 % 1008,4 hPa 0,0 l/m 0 min 0 min 82 W/m 38,6 km/h (5 Bft) 100,00 %
04.02.2022 13:14 8,7 C 8,3 C 5,0 C 84 % 1008,4 hPa 0,0 l/m 0 min 0 min 63 W/m 25,7 km/h (4 Bft) 95,74 %
04.02.2022 13:16 8,7 C 8,3 C 5,0 C 84 % 1008,4 hPa 0,0 l/m 0 min 0 min 42 W/m 41,8 km/h (6 Bft) 100,00 %
04.02.2022 13:18 8,6 C 7,8 C 5,0 C 84 % 1008,3 hPa 0,0 l/m 0 min 0 min 52 W/m 41,8 km/h (6 Bft) 97,83 %
04.02.2022 13:20 8,6 C 7,8 C 5,0 C 84 % 1008,3 hPa 0,0 l/m 0 min 0 min 61 W/m 45,1 km/h (6 Bft) 97,87 %
04.02.2022 13:22 8,6 C 7,8 C 5,0 C 84 % 1008,3 hPa 0,0 l/m 0 min 0 min 48 W/m 38,6 km/h (5 Bft) 100,00 %
04.02.2022 13:24 8,6 C 7,8 C 5,0 C 84 % 1008,2 hPa 0,0 l/m 0 min 0 min 32 W/m 32,2 km/h (5 Bft) 97,87 %
04.02.2022 13:26 8,5 C 7,8 C 5,0 C 84 % 1008,2 hPa 0,0 l/m 0 min 0 min 33 W/m 29,0 km/h (5 Bft) 97,87 %
04.02.2022 13:28 8,5 C 7,8 C 5,0 C 84 % 1008,2 hPa 0,0 l/m 0 min 0 min 28 W/m 25,7 km/h (4 Bft) 95,74 %
04.02.2022 13:30 8,5 C 7,8 C 5,0 C 85 % 1008,1 hPa 0,0 l/m 0 min 0 min 34 W/m 22,5 km/h (4 Bft) 97,83 %
04.02.2022 13:32 8,5 C 7,8 C 5,0 C 85 % 1008,2 hPa 0,0 l/m 0 min 0 min 33 W/m 22,5 km/h (4 Bft) 95,74 %
04.02.2022 13:34 8,4 C 7,8 C 5,0 C 85 % 1008,1 hPa 0,0 l/m 0 min 0 min 44 W/m 25,7 km/h (4 Bft) 97,87 %
04.02.2022 13:36 8,5 C 7,8 C 5,0 C 85 % 1008,1 hPa 0,0 l/m 0 min 0 min 75 W/m 29,0 km/h (5 Bft) 97,87 %
04.02.2022 13:38 8,5 C 7,8 C 5,0 C 85 % 1008,0 hPa 0,0 l/m 0 min 0 min 66 W/m 38,6 km/h (5 Bft) 97,87 %
04.02.2022 13:40 8,4 C 7,8 C 5,0 C 85 % 1008,0 hPa 0,0 l/m 0 min 0 min 64 W/m 29,0 km/h (5 Bft) 97,87 %
04.02.2022 13:42 8,5 C 7,8 C 5,0 C 85 % 1007,9 hPa 0,0 l/m 0 min 0 min 70 W/m 25,7 km/h (4 Bft) 97,83 %
04.02.2022 13:44 8,5 C 7,8 C 5,0 C 85 % 1007,9 hPa 0,0 l/m 0 min 0 min 74 W/m 25,7 km/h (4 Bft) 97,87 %
04.02.2022 13:46 8,5 C 7,8 C 5,0 C 85 % 1007,9 hPa 0,0 l/m 0 min 0 min 68 W/m 35,4 km/h (5 Bft) 95,74 %
04.02.2022 13:48 8,5 C 7,8 C 5,0 C 85 % 1007,8 hPa 0,0 l/m 0 min 0 min 57 W/m 32,2 km/h (5 Bft) 95,74 %
04.02.2022 13:50 8,5 C 7,8 C 5,0 C 85 % 1007,8 hPa 0,0 l/m 0 min 0 min 64 W/m 45,1 km/h (6 Bft) 97,87 %
04.02.2022 13:52 8,5 C 7,8 C 5,0 C 85 % 1007,8 hPa 0,0 l/m 0 min 0 min 71 W/m 29,0 km/h (5 Bft) 100,00 %
04.02.2022 13:54 8,5 C 7,8 C 5,0 C 85 % 1007,7 hPa 0,0 l/m 0 min 0 min 53 W/m 25,7 km/h (4 Bft) 97,87 %
04.02.2022 13:56 8,5 C 8,3 C 5,0 C 85 % 1007,6 hPa 0,0 l/m 0 min 0 min 74 W/m 57,9 km/h (7 Bft) 95,74 %
04.02.2022 13:58 8,5 C 8,3 C 5,0 C 84 % 1007,7 hPa 0,0 l/m 0 min 0 min 122 W/m 38,6 km/h (5 Bft) 100,00 %
04.02.2022 14:00 8,6 C 8,3 C 5,0 C 84 % 1007,6 hPa 0,0 l/m 0 min 0 min 116 W/m 29,0 km/h (5 Bft) 97,87 %
04.02.2022 14:02 8,6 C 8,3 C 5,0 C 85 % 1007,6 hPa 0,0 l/m 0 min 0 min 135 W/m 32,2 km/h (5 Bft) 91,49 %
04.02.2022 14:04 8,6 C 8,3 C 5,0 C 84 % 1007,5 hPa 0,0 l/m 0 min 0 min 151 W/m 77,2 km/h (9 Bft) 100,00 %
04.02.2022 14:06 8,6 C 8,3 C 5,6 C 84 % 1007,5 hPa 0,0 l/m 0 min 0 min 169 W/m 45,1 km/h (6 Bft) 93,62 %
04.02.2022 14:08 8,7 C 8,9 C 5,6 C 84 % 1007,5 hPa 0,0 l/m 2 min 0 min 211 W/m 38,6 km/h (5 Bft) 97,87 %
04.02.2022 14:10 8,7 C 9,4 C 5,6 C 84 % 1007,3 hPa 0,0 l/m 2 min 0 min 269 W/m 22,5 km/h (4 Bft) 97,87 %
04.02.2022 14:12 8,8 C 10,0 C 5,6 C 84 % 1007,3 hPa 0,0 l/m 2 min 0 min 310 W/m 35,4 km/h (5 Bft) 97,87 %
04.02.2022 14:14 8,9 C 10,0 C 5,6 C 83 % 1007,3 hPa 0,0 l/m 2 min 0 min 262 W/m 29,0 km/h (5 Bft) 95,74 %
04.02.2022 14:16 9,0 C 10,0 C 5,6 C 83 % 1007,3 hPa 0,0 l/m 2 min 0 min 247 W/m 25,7 km/h (4 Bft) 93,48 %
04.02.2022 14:18 9,1 C 10,0 C 5,6 C 83 % 1007,2 hPa 0,0 l/m 2 min 0 min 181 W/m 45,1 km/h (6 Bft) 97,87 %
04.02.2022 14:20 9,1 C 9,4 C 5,6 C 83 % 1007,2 hPa 0,0 l/m 2 min 0 min 178 W/m 25,7 km/h (4 Bft) 95,74 %
04.02.2022 14:22 9,1 C 9,4 C 5,6 C 83 % 1007,1 hPa 0,0 l/m 2 min 0 min 184 W/m 35,4 km/h (5 Bft) 93,62 %
04.02.2022 14:24 9,1 C 9,4 C 5,6 C 83 % 1007,3 hPa 0,0 l/m 0 min 0 min 165 W/m 32,2 km/h (5 Bft) 95,74 %
04.02.2022 14:26 9,1 C 9,4 C 5,6 C 82 % 1007,1 hPa 0,0 l/m 2 min 0 min 172 W/m 57,9 km/h (7 Bft) 93,62 %
04.02.2022 14:28 9,1 C 9,4 C 5,6 C 82 % 1007,1 hPa 0,0 l/m 2 min 0 min 188 W/m 38,6 km/h (5 Bft) 95,65 %
04.02.2022 14:30 9,1 C 9,4 C 5,6 C 82 % 1007,1 hPa 0,0 l/m 2 min 0 min 188 W/m 32,2 km/h (5 Bft) 95,74 %
04.02.2022 14:32 9,1 C 8,9 C 5,6 C 82 % 1007,0 hPa 0,0 l/m 2 min 0 min 174 W/m 48,3 km/h (6 Bft) 95,74 %
04.02.2022 14:34 9,1 C 8,9 C 5,6 C 82 % 1006,9 hPa 0,0 l/m 0 min 0 min 151 W/m 32,2 km/h (5 Bft) 93,62 %
04.02.2022 14:36 9,1 C 8,9 C 5,6 C 81 % 1007,0 hPa 0,0 l/m 0 min 0 min 148 W/m 35,4 km/h (5 Bft) 93,62 %
04.02.2022 14:38 9,1 C 8,9 C 5,6 C 82 % 1006,9 hPa 0,0 l/m 0 min 2 min 125 W/m 32,2 km/h (5 Bft) 95,74 %
04.02.2022 14:40 9,1 C 8,9 C 5,6 C 82 % 1006,9 hPa 0,0 l/m 0 min 2 min 121 W/m 29,0 km/h (5 Bft) 95,65 %
04.02.2022 14:42 9,1 C 8,9 C 5,6 C 82 % 1006,9 hPa 0,0 l/m 0 min 2 min 86 W/m 54,7 km/h (7 Bft) 95,74 %
04.02.2022 14:44 9,1 C 8,3 C 5,0 C 82 % 1006,8 hPa 0,0 l/m 0 min 2 min 69 W/m 38,6 km/h (5 Bft) 93,62 %
04.02.2022 14:46 9,1 C 8,3 C 5,0 C 82 % 1006,8 hPa 0,0 l/m 0 min 2 min 70 W/m 32,2 km/h (5 Bft) 95,74 %
04.02.2022 14:48 9,0 C 8,3 C 5,0 C 82 % 1006,7 hPa 0,0 l/m 0 min 0 min 74 W/m 38,6 km/h (5 Bft) 93,62 %
04.02.2022 14:50 9,0 C 8,3 C 5,0 C 82 % 1006,6 hPa 0,0 l/m 0 min 0 min 81 W/m 32,2 km/h (5 Bft) 93,62 %
04.02.2022 14:52 8,9 C 8,3 C 5,0 C 82 % 1006,6 hPa 0,0 l/m 0 min 0 min 83 W/m 22,5 km/h (4 Bft) 95,65 %
04.02.2022 14:54 8,9 C 8,3 C 5,0 C 82 % 1006,5 hPa 0,0 l/m 0 min 0 min 84 W/m 41,8 km/h (6 Bft) 93,62 %
04.02.2022 14:56 8,9 C 8,3 C 5,0 C 82 % 1006,4 hPa 0,0 l/m 0 min 0 min 93 W/m 32,2 km/h (5 Bft) 95,74 %
04.02.2022 14:58 8,9 C 8,3 C 5,0 C 82 % 1006,4 hPa 0,0 l/m 0 min 0 min 102 W/m 22,5 km/h (4 Bft) 95,74 %
04.02.2022 15:00 8,9 C 8,3 C 5,6 C 83 % 1006,5 hPa 0,0 l/m 0 min 0 min 102 W/m 35,4 km/h (5 Bft) 97,87 %
04.02.2022 15:02 8,9 C 8,3 C 5,6 C 82 % 1006,4 hPa 0,0 l/m 0 min 0 min 103 W/m 29,0 km/h (5 Bft) 100,00 %
04.02.2022 15:04 8,9 C 8,3 C 5,6 C 83 % 1006,4 hPa 0,0 l/m 0 min 0 min 99 W/m 35,4 km/h (5 Bft) 100,00 %
04.02.2022 15:06 8,9 C 8,3 C 5,0 C 82 % 1006,3 hPa 0,0 l/m 0 min 0 min 79 W/m 38,6 km/h (5 Bft) 97,87 %
04.02.2022 15:08 8,9 C 8,3 C 5,0 C 83 % 1006,4 hPa 0,0 l/m 0 min 0 min 90 W/m 32,2 km/h (5 Bft) 100,00 %
04.02.2022 15:10 8,9 C 8,3 C 5,0 C 83 % 1006,3 hPa 0,0 l/m 0 min 0 min 113 W/m 32,2 km/h (5 Bft) 97,87 %
04.02.2022 15:12 8,8 C 8,3 C 5,0 C 83 % 1006,3 hPa 0,0 l/m 0 min 0 min 108 W/m 41,8 km/h (6 Bft) 100,00 %
04.02.2022 15:14 8,8 C 8,3 C 5,0 C 83 % 1006,2 hPa 0,0 l/m 0 min 0 min 97 W/m 22,5 km/h (4 Bft) 100,00 %
04.02.2022 15:17 8,8 C 8,3 C 5,0 C 83 % 1006,1 hPa 0,0 l/m 0 min 0 min 77 W/m 29,0 km/h (5 Bft) 100,00 %
04.02.2022 15:18 8,8 C 8,3 C 5,0 C 83 % 1006,1 hPa 0,0 l/m 0 min 0 min 62 W/m 29,0 km/h (5 Bft) 100,00 %
04.02.2022 15:20 8,8 C 8,3 C 5,0 C 83 % 1006,1 hPa 0,0 l/m 0 min 0 min 48 W/m 32,2 km/h (5 Bft) 100,00 %
04.02.2022 15:22 8,8 C 8,3 C 5,0 C 82 % 1006,1 hPa 0,0 l/m 0 min 0 min 40 W/m 35,4 km/h (5 Bft) 100,00 %
04.02.2022 15:24 8,8 C 8,3 C 5,0 C 82 % 1006,1 hPa 0,0 l/m 0 min 0 min 39 W/m 29,0 km/h (5 Bft) 100,00 %
04.02.2022 15:26 8,8 C 8,3 C 5,0 C 82 % 1006,2 hPa 0,0 l/m 0 min 0 min 38 W/m 32,2 km/h (5 Bft) 100,00 %
04.02.2022 15:28 8,8 C 8,3 C 5,0 C 82 % 1006,1 hPa 0,0 l/m 0 min 0 min 40 W/m 35,4 km/h (5 Bft) 97,83 %
04.02.2022 15:30 8,7 C 8,3 C 5,0 C 82 % 1006,1 hPa 0,0 l/m 0 min 0 min 43 W/m 38,6 km/h (5 Bft) 97,87 %
04.02.2022 15:32 8,7 C 8,3 C 5,0 C 82 % 1006,1 hPa 0,0 l/m 0 min 0 min 51 W/m 29,0 km/h (5 Bft) 97,87 %
04.02.2022 15:34 8,7 C 8,3 C 5,0 C 82 % 1006,1 hPa 0,0 l/m 0 min 0 min 60 W/m 32,2 km/h (5 Bft) 97,87 %
04.02.2022 15:36 8,7 C 8,3 C 5,0 C 82 % 1006,0 hPa 0,0 l/m 0 min 0 min 59 W/m 41,8 km/h (6 Bft) 95,74 %
04.02.2022 15:38 8,7 C 8,3 C 5,0 C 82 % 1006,0 hPa 0,0 l/m 0 min 0 min 56 W/m 29,0 km/h (5 Bft) 97,87 %
04.02.2022 15:40 8,7 C 8,3 C 5,0 C 82 % 1005,9 hPa 0,0 l/m 0 min 0 min 48 W/m 25,7 km/h (4 Bft) 97,83 %
04.02.2022 15:42 8,7 C 8,3 C 5,0 C 82 % 1005,9 hPa 0,0 l/m 0 min 0 min 44 W/m 32,2 km/h (5 Bft) 97,87 %
04.02.2022 15:44 8,7 C 8,3 C 5,0 C 82 % 1005,9 hPa 0,0 l/m 0 min 0 min 47 W/m 25,7 km/h (4 Bft) 97,87 %
04.02.2022 15:46 8,7 C 8,3 C 5,0 C 82 % 1005,9 hPa 0,0 l/m 0 min 0 min 42 W/m 41,8 km/h (6 Bft) 95,74 %
04.02.2022 15:48 8,7 C 8,3 C 5,0 C 82 % 1005,7 hPa 0,0 l/m 0 min 0 min 39 W/m 35,4 km/h (5 Bft) 97,87 %
04.02.2022 15:50 8,7 C 8,3 C 5,0 C 82 % 1005,7 hPa 0,0 l/m 0 min 0 min 36 W/m 41,8 km/h (6 Bft) 97,87 %
04.02.2022 15:52 8,8 C 8,3 C 5,0 C 82 % 1005,7 hPa 0,0 l/m 0 min 0 min 37 W/m 25,7 km/h (4 Bft) 95,65 %
04.02.2022 15:54 8,8 C 8,3 C 5,0 C 82 % 1005,6 hPa 0,0 l/m 0 min 0 min 35 W/m 35,4 km/h (5 Bft) 97,87 %
04.02.2022 15:56 8,8 C 8,3 C 5,0 C 82 % 1005,7 hPa 0,0 l/m 0 min 0 min 32 W/m 45,1 km/h (6 Bft) 97,87 %
04.02.2022 15:58 8,8 C 8,3 C 5,0 C 82 % 1005,6 hPa 0,0 l/m 0 min 0 min 31 W/m 32,2 km/h (5 Bft) 97,87 %
04.02.2022 16:00 8,8 C 8,3 C 5,0 C 82 % 1005,5 hPa 0,0 l/m 0 min 0 min 33 W/m 29,0 km/h (5 Bft) 97,87 %
04.02.2022 16:02 8,8 C 8,3 C 5,0 C 82 % 1005,6 hPa 0,0 l/m 0 min 2 min 30 W/m 32,2 km/h (5 Bft) 100,00 %
04.02.2022 16:04 8,8 C 7,8 C 4,4 C 82 % 1005,6 hPa 0,0 l/m 0 min 2 min 24 W/m 29,0 km/h (5 Bft) 100,00 %
04.02.2022 16:06 8,7 C 7,8 C 4,4 C 83 % 1005,7 hPa 0,0 l/m 0 min 2 min 21 W/m 45,1 km/h (6 Bft) 100,00 %
04.02.2022 16:08 8,7 C 7,8 C 3,9 C 83 % 1005,6 hPa 0,0 l/m 0 min 2 min 20 W/m 38,6 km/h (5 Bft) 100,00 %
04.02.2022 16:10 8,6 C 7,8 C 3,9 C 84 % 1005,5 hPa 0,0 l/m 0 min 2 min 20 W/m 35,4 km/h (5 Bft) 97,87 %
04.02.2022 16:12 8,6 C 7,8 C 3,9 C 84 % 1005,6 hPa 0,0 l/m 0 min 2 min 18 W/m 29,0 km/h (5 Bft) 97,87 %
04.02.2022 16:14 8,6 C 7,8 C 3,9 C 84 % 1005,6 hPa 0,0 l/m 0 min 2 min 13 W/m 22,5 km/h (4 Bft) 97,87 %
04.02.2022 16:16 8,5 C 7,8 C 3,9 C 84 % 1005,6 hPa 0,0 l/m 0 min 2 min 12 W/m 45,1 km/h (6 Bft) 100,00 %
04.02.2022 16:18 8,4 C 7,8 C 3,9 C 85 % 1005,6 hPa 0,2 l/m 0 min 2 min 15 W/m 32,2 km/h (5 Bft) 100,00 %
04.02.2022 16:20 8,4 C 7,2 C 3,9 C 85 % 1005,5 hPa 0,0 l/m 0 min 2 min 13 W/m 41,8 km/h (6 Bft) 100,00 %
04.02.2022 16:22 8,3 C 7,2 C 3,3 C 86 % 1005,6 hPa 0,0 l/m 0 min 2 min 12 W/m 35,4 km/h (5 Bft) 97,87 %
04.02.2022 16:24 8,3 C 7,2 C 3,3 C 86 % 1005,7 hPa 0,0 l/m 0 min 2 min 12 W/m 32,2 km/h (5 Bft) 100,00 %
04.02.2022 16:26 8,2 C 7,2 C 3,3 C 87 % 1005,6 hPa 0,0 l/m 0 min 2 min 12 W/m 32,2 km/h (5 Bft) 100,00 %
04.02.2022 16:28 8,1 C 7,2 C 3,3 C 88 % 1005,7 hPa 0,0 l/m 0 min 2 min 12 W/m 32,2 km/h (5 Bft) 100,00 %
04.02.2022 16:30 8,1 C 7,2 C 3,3 C 88 % 1005,6 hPa 0,0 l/m 0 min 2 min 13 W/m 35,4 km/h (5 Bft) 100,00 %
04.02.2022 16:32 8,0 C 6,7 C 3,3 C 88 % 1005,6 hPa 0,0 l/m 0 min 2 min 14 W/m 32,2 km/h (5 Bft) 100,00 %
04.02.2022 16:34 7,9 C 6,7 C 3,3 C 89 % 1005,6 hPa 0,0 l/m 0 min 2 min 14 W/m 41,8 km/h (6 Bft) 97,87 %
04.02.2022 16:36 7,8 C 6,7 C 3,3 C 89 % 1005,6 hPa 0,0 l/m 0 min 2 min 15 W/m 38,6 km/h (5 Bft) 100,00 %
04.02.2022 16:38 7,8 C 6,7 C 3,3 C 90 % 1005,6 hPa 0,2 l/m 0 min 2 min 12 W/m 25,7 km/h (4 Bft) 100,00 %
04.02.2022 16:40 7,7 C 6,7 C 3,3 C 90 % 1005,6 hPa 0,0 l/m 0 min 2 min 11 W/m 38,6 km/h (5 Bft) 100,00 %
04.02.2022 16:42 7,7 C 6,7 C 3,3 C 90 % 1005,7 hPa 0,0 l/m 0 min 2 min 10 W/m 45,1 km/h (6 Bft) 100,00 %
04.02.2022 16:44 7,7 C 6,7 C 3,3 C 91 % 1005,6 hPa 0,0 l/m 0 min 2 min 7 W/m 19,3 km/h (3 Bft) 100,00 %
04.02.2022 16:46 7,6 C 6,1 C 3,3 C 91 % 1005,6 hPa 0,0 l/m 0 min 2 min 7 W/m 25,7 km/h (4 Bft) 100,00 %
04.02.2022 16:48 7,6 C 6,7 C 3,3 C 91 % 1005,6 hPa 0,0 l/m 0 min 2 min 7 W/m 29,0 km/h (5 Bft) 100,00 %
04.02.2022 16:50 7,6 C 6,7 C 3,3 C 92 % 1005,6 hPa 0,0 l/m 0 min 2 min 8 W/m 29,0 km/h (5 Bft) 97,83 %
04.02.2022 16:52 7,5 C 6,7 C 3,3 C 92 % 1005,5 hPa 0,0 l/m 0 min 2 min 15 W/m 32,2 km/h (5 Bft) 97,87 %
04.02.2022 16:54 7,5 C 6,7 C 3,3 C 92 % 1005,6 hPa 0,0 l/m 0 min 2 min 16 W/m 35,4 km/h (5 Bft) 100,00 %
04.02.2022 16:56 7,5 C 6,7 C 3,3 C 92 % 1005,6 hPa 0,0 l/m 0 min 2 min 12 W/m 35,4 km/h (5 Bft) 100,00 %
04.02.2022 16:58 7,4 C 6,7 C 3,3 C 93 % 1005,6 hPa 0,0 l/m 0 min 2 min 10 W/m 32,2 km/h (5 Bft) 100,00 %
04.02.2022 17:00 7,4 C 6,7 C 3,3 C 93 % 1005,6 hPa 0,0 l/m 0 min 2 min 8 W/m 32,2 km/h (5 Bft) 97,87 %
04.02.2022 17:02 7,4 C 6,7 C 3,3 C 93 % 1005,7 hPa 0,0 l/m 0 min 2 min 7 W/m 38,6 km/h (5 Bft) 95,65 %
04.02.2022 17:04 7,4 C 6,1 C 3,3 C 93 % 1005,7 hPa 0,2 l/m 0 min 2 min 5 W/m 45,1 km/h (6 Bft) 95,74 %
04.02.2022 17:06 7,4 C 6,1 C 3,3 C 93 % 1005,7 hPa 0,0 l/m 0 min 2 min 0 W/m 32,2 km/h (5 Bft) 95,74 %
04.02.2022 17:08 7,4 C 6,1 C 3,3 C 93 % 1005,7 hPa 0,0 l/m 0 min 2 min 0 W/m 29,0 km/h (5 Bft) 95,74 %
04.02.2022 17:10 7,4 C 6,1 C 3,3 C 93 % 1005,7 hPa 0,0 l/m 0 min 2 min 0 W/m 29,0 km/h (5 Bft) 93,62 %
04.02.2022 17:12 7,4 C 6,1 C 3,3 C 94 % 1005,7 hPa 0,0 l/m 0 min 2 min 0 W/m 25,7 km/h (4 Bft) 95,74 %
04.02.2022 17:14 7,4 C 6,1 C 3,3 C 94 % 1005,8 hPa 0,2 l/m 0 min 2 min 0 W/m 22,5 km/h (4 Bft) 95,65 %
04.02.2022 17:16 7,3 C 6,1 C 3,3 C 94 % 1005,8 hPa 0,2 l/m 0 min 2 min 0 W/m 16,1 km/h (3 Bft) 95,74 %
04.02.2022 17:18 7,3 C 6,1 C 3,3 C 94 % 1006,0 hPa 0,0 l/m 0 min 2 min 0 W/m 29,0 km/h (5 Bft) 95,74 %
04.02.2022 17:20 7,4 C 6,1 C 3,3 C 94 % 1006,0 hPa 0,2 l/m 0 min 2 min 0 W/m 25,7 km/h (4 Bft) 95,74 %
04.02.2022 17:22 7,4 C 6,1 C 3,3 C 94 % 1006,2 hPa 0,2 l/m 0 min 2 min 0 W/m 29,0 km/h (5 Bft) 91,49 %
04.02.2022 17:24 7,4 C 6,1 C 3,3 C 94 % 1006,7 hPa 0,2 l/m 0 min 2 min 0 W/m 29,0 km/h (5 Bft) 93,62 %
04.02.2022 17:26 7,2 C 5,6 C 2,8 C 94 % 1006,7 hPa 0,0 l/m 0 min 2 min 0 W/m 38,6 km/h (5 Bft) 89,13 %
04.02.2022 17:28 6,9 C 5,6 C 2,8 C 94 % 1007,0 hPa 0,0 l/m 0 min 2 min 0 W/m 25,7 km/h (4 Bft) 93,62 %
04.02.2022 17:30 6,7 C 5,0 C 2,2 C 94 % 1007,1 hPa 0,2 l/m 0 min 2 min 0 W/m 51,5 km/h (7 Bft) 91,49 %
04.02.2022 17:32 6,4 C 5,0 C 2,2 C 93 % 1007,2 hPa 0,0 l/m 0 min 2 min 0 W/m 45,1 km/h (6 Bft) 91,49 %
04.02.2022 17:34 6,2 C 4,4 C 1,7 C 93 % 1007,4 hPa 0,0 l/m 0 min 2 min 0 W/m 35,4 km/h (5 Bft) 91,49 %
04.02.2022 17:36 6,1 C 4,4 C 1,7 C 93 % 1007,7 hPa 0,0 l/m 0 min 0 min 0 W/m 38,6 km/h (5 Bft) 91,49 %
04.02.2022 17:38 5,8 C 4,4 C 1,7 C 93 % 1007,6 hPa 0,0 l/m 0 min 0 min 0 W/m 38,6 km/h (5 Bft) 93,48 %
04.02.2022 17:40 5,6 C 4,4 C 1,7 C 93 % 1007,9 hPa 0,0 l/m 0 min 0 min 0 W/m 35,4 km/h (5 Bft) 95,74 %
04.02.2022 17:42 5,4 C 4,4 C 1,1 C 93 % 1008,1 hPa 0,0 l/m 0 min 0 min 0 W/m 41,8 km/h (6 Bft) 93,75 %
04.02.2022 17:44 5,2 C 4,4 C 1,1 C 93 % 1008,2 hPa 0,0 l/m 0 min 0 min 0 W/m 35,4 km/h (5 Bft) 91,49 %
04.02.2022 17:46 5,1 C 3,9 C 1,1 C 93 % 1008,4 hPa 0,0 l/m 0 min 0 min 0 W/m 38,6 km/h (5 Bft) 93,62 %
04.02.2022 17:48 5,0 C 3,9 C 1,1 C 93 % 1008,5 hPa 0,0 l/m 0 min 0 min 0 W/m 38,6 km/h (5 Bft) 95,74 %
04.02.2022 17:50 4,9 C 3,9 C 1,1 C 93 % 1008,6 hPa 0,0 l/m 0 min 0 min 0 W/m 29,0 km/h (5 Bft) 95,65 %
04.02.2022 17:52 4,8 C 3,9 C 1,1 C 93 % 1008,7 hPa 0,0 l/m 0 min 0 min 0 W/m 29,0 km/h (5 Bft) 93,62 %
04.02.2022 17:54 4,8 C 3,9 C 1,1 C 93 % 1008,8 hPa 0,0 l/m 0 min 0 min 0 W/m 22,5 km/h (4 Bft) 97,87 %
04.02.2022 17:56 4,7 C 3,9 C 1,1 C 93 % 1008,9 hPa 0,0 l/m 0 min 0 min 0 W/m 25,7 km/h (4 Bft) 97,87 %
04.02.2022 17:58 4,6 C 3,9 C 0,6 C 93 % 1009,0 hPa 0,0 l/m 0 min 0 min 0 W/m 38,6 km/h (5 Bft) 100,00 %
04.02.2022 18:00 4,6 C 3,9 C 0,6 C 93 % 1009,2 hPa 0,0 l/m 0 min 0 min 0 W/m 25,7 km/h (4 Bft) 100,00 %
04.02.2022 18:02 4,6 C 3,9 C 0,6 C 93 % 1009,3 hPa 0,0 l/m 0 min 0 min 0 W/m 22,5 km/h (4 Bft) 95,74 %
04.02.2022 18:04 4,6 C 3,9 C 0,6 C 93 % 1009,4 hPa 0,0 l/m 0 min 0 min 0 W/m 19,3 km/h (3 Bft) 100,00 %
04.02.2022 18:06 4,5 C 3,9 C 0,6 C 93 % 1009,4 hPa 0,0 l/m 0 min 0 min 0 W/m 25,7 km/h (4 Bft) 91,67 %
04.02.2022 18:08 4,5 C 3,9 C 0,6 C 93 % 1009,6 hPa 0,0 l/m 0 min 0 min 0 W/m 19,3 km/h (3 Bft) 100,00 %
04.02.2022 18:10 4,5 C 3,9 C 1,1 C 93 % 1009,7 hPa 0,0 l/m 0 min 0 min 0 W/m 29,0 km/h (5 Bft) 97,87 %
04.02.2022 18:12 4,5 C 3,9 C 1,1 C 93 % 1009,7 hPa 0,0 l/m 0 min 0 min 0 W/m 35,4 km/h (5 Bft) 100,00 %
04.02.2022 18:14 4,5 C 3,9 C 1,1 C 93 % 1009,8 hPa 0,0 l/m 0 min 0 min 0 W/m 32,2 km/h (5 Bft) 100,00 %
04.02.2022 18:16 4,5 C 3,9 C 0,6 C 94 % 1009,9 hPa 0,0 l/m 0 min 0 min 0 W/m 29,0 km/h (5 Bft) 100,00 %
04.02.2022 18:18 4,4 C 3,9 C 0,6 C 94 % 1010,0 hPa 0,0 l/m 0 min 0 min 0 W/m 19,3 km/h (3 Bft) 100,00 %
04.02.2022 18:20 4,4 C 3,9 C 1,1 C 94 % 1010,0 hPa 0,0 l/m 0 min 2 min 0 W/m 19,3 km/h (3 Bft) 97,87 %
04.02.2022 18:22 4,4 C 3,9 C 0,6 C 94 % 1010,1 hPa 0,0 l/m 0 min 2 min 0 W/m 19,3 km/h (3 Bft) 100,00 %
04.02.2022 18:24 4,5 C 3,9 C 1,1 C 94 % 1010,2 hPa 0,0 l/m 0 min 0 min 0 W/m 29,0 km/h (5 Bft) 100,00 %
04.02.2022 18:26 4,4 C 3,9 C 1,1 C 94 % 1010,2 hPa 0,0 l/m 0 min 0 min 0 W/m 22,5 km/h (4 Bft) 100,00 %
04.02.2022 18:28 4,4 C 3,9 C 0,6 C 94 % 1010,2 hPa 0,0 l/m 0 min 2 min 0 W/m 29,0 km/h (5 Bft) 100,00 %
04.02.2022 18:30 4,4 C 3,9 C 1,1 C 94 % 1010,3 hPa 0,0 l/m 0 min 0 min 0 W/m 12,9 km/h (3 Bft) 100,00 %
04.02.2022 18:32 4,4 C 3,9 C 1,1 C 94 % 1010,5 hPa 0,0 l/m 0 min 0 min 0 W/m 25,7 km/h (4 Bft) 100,00 %
04.02.2022 18:34 4,5 C 3,9 C 1,1 C 94 % 1010,5 hPa 0,0 l/m 0 min 0 min 0 W/m 22,5 km/h (4 Bft) 100,00 %
04.02.2022 18:36 4,4 C 3,9 C 0,6 C 94 % 1010,5 hPa 0,0 l/m 0 min 0 min 0 W/m 25,7 km/h (4 Bft) 100,00 %
04.02.2022 18:38 4,4 C 3,9 C 0,6 C 94 % 1010,6 hPa 0,0 l/m 0 min 0 min 0 W/m 25,7 km/h (4 Bft) 100,00 %
04.02.2022 18:40 4,5 C 3,9 C 0,6 C 94 % 1010,7 hPa 0,0 l/m 0 min 0 min 0 W/m 22,5 km/h (4 Bft) 100,00 %
04.02.2022 18:42 4,5 C 3,9 C 0,6 C 94 % 1010,7 hPa 0,0 l/m 0 min 0 min 0 W/m 19,3 km/h (3 Bft) 97,83 %
04.02.2022 18:44 4,5 C 3,9 C 0,6 C 94 % 1010,8 hPa 0,0 l/m 0 min 0 min 0 W/m 16,1 km/h (3 Bft) 100,00 %
04.02.2022 18:46 4,5 C 3,9 C 0,6 C 94 % 1010,8 hPa 0,0 l/m 0 min 0 min 0 W/m 32,2 km/h (5 Bft) 100,00 %
04.02.2022 18:48 4,5 C 3,9 C 0,6 C 94 % 1010,9 hPa 0,0 l/m 0 min 0 min 0 W/m 25,7 km/h (4 Bft) 100,00 %
04.02.2022 18:50 4,5 C 3,9 C 1,1 C 94 % 1011,0 hPa 0,0 l/m 0 min 0 min 0 W/m 29,0 km/h (5 Bft) 97,87 %
04.02.2022 18:52 4,6 C 3,9 C 1,1 C 94 % 1011,1 hPa 0,0 l/m 0 min 0 min 0 W/m 22,5 km/h (4 Bft) 100,00 %
04.02.2022 18:54 4,6 C 3,9 C 1,1 C 94 % 1011,1 hPa 0,0 l/m 0 min 0 min 0 W/m 22,5 km/h (4 Bft) 100,00 %
04.02.2022 18:56 4,6 C 3,9 C 1,1 C 94 % 1011,3 hPa 0,0 l/m 0 min 0 min 0 W/m 32,2 km/h (5 Bft) 97,87 %
04.02.2022 18:58 4,6 C 3,9 C 1,1 C 94 % 1011,4 hPa 0,0 l/m 0 min 2 min 0 W/m 22,5 km/h (4 Bft) 100,00 %
04.02.2022 19:00 4,6 C 3,9 C 1,1 C 94 % 1011,4 hPa 0,0 l/m 0 min 2 min 0 W/m 19,3 km/h (3 Bft) 97,87 %
04.02.2022 19:02 4,5 C 3,9 C 0,6 C 94 % 1011,5 hPa 0,0 l/m 0 min 2 min 0 W/m 25,7 km/h (4 Bft) 97,83 %
04.02.2022 19:04 4,5 C 3,9 C 0,6 C 94 % 1011,5 hPa 0,0 l/m 0 min 2 min 0 W/m 32,2 km/h (5 Bft) 100,00 %
04.02.2022 19:06 4,4 C 3,3 C 0,6 C 94 % 1011,8 hPa 0,0 l/m 0 min 2 min 0 W/m 25,7 km/h (4 Bft) 97,87 %
04.02.2022 19:08 4,3 C 3,3 C 0,6 C 94 % 1011,8 hPa 0,2 l/m 0 min 2 min 0 W/m 38,6 km/h (5 Bft) 100,00 %
04.02.2022 19:10 4,3 C 3,3 C 0,6 C 94 % 1012,0 hPa 0,0 l/m 0 min 2 min 0 W/m 19,3 km/h (3 Bft) 100,00 %
04.02.2022 19:12 4,2 C 3,3 C 0,6 C 94 % 1012,1 hPa 0,0 l/m 0 min 2 min 0 W/m 22,5 km/h (4 Bft) 97,87 %
04.02.2022 19:14 4,1 C 3,3 C 0,6 C 94 % 1011,9 hPa 0,2 l/m 0 min 2 min 0 W/m 22,5 km/h (4 Bft) 95,65 %
04.02.2022 19:16 4,0 C 3,3 C 0,6 C 94 % 1012,1 hPa 0,0 l/m 0 min 0 min 0 W/m 25,7 km/h (4 Bft) 97,87 %
04.02.2022 19:18 3,9 C 3,3 C 0,6 C 94 % 1012,0 hPa 0,0 l/m 0 min 0 min 0 W/m 16,1 km/h (3 Bft) 95,74 %
04.02.2022 19:20 3,9 C 3,3 C 0,6 C 94 % 1012,1 hPa 0,0 l/m 0 min 0 min 0 W/m 16,1 km/h (3 Bft) 97,87 %
04.02.2022 19:22 3,9 C 3,3 C 0,6 C 94 % 1012,2 hPa 0,0 l/m 0 min 0 min 0 W/m 12,9 km/h (3 Bft) 97,87 %
04.02.2022 19:24 3,9 C 3,3 C 0,6 C 94 % 1012,2 hPa 0,0 l/m 0 min 0 min 0 W/m 19,3 km/h (3 Bft) 97,87 %
04.02.2022 19:26 3,9 C 3,3 C 0,6 C 94 % 1012,3 hPa 0,0 l/m 0 min 0 min 0 W/m 29,0 km/h (5 Bft) 93,48 %
04.02.2022 19:28 3,8 C 3,3 C 0,6 C 94 % 1012,3 hPa 0,0 l/m 0 min 0 min 0 W/m 25,7 km/h (4 Bft) 93,62 %
04.02.2022 19:30 3,8 C 3,3 C 0,6 C 94 % 1012,4 hPa 0,0 l/m 0 min 0 min 0 W/m 22,5 km/h (4 Bft) 97,87 %
04.02.2022 19:32 3,8 C 3,3 C 0,6 C 94 % 1012,5 hPa 0,0 l/m 0 min 0 min 0 W/m 19,3 km/h (3 Bft) 95,74 %
04.02.2022 19:34 3,8 C 2,8 C 0,6 C 94 % 1012,4 hPa 0,0 l/m 0 min 0 min 0 W/m 22,5 km/h (4 Bft) 47,37 %
04.02.2022 19:36 3,8 C 2,8 C 0,0 C 94 % 1012,5 hPa 0,0 l/m 0 min 0 min 0 W/m 25,7 km/h (4 Bft) 95,74 %
04.02.2022 19:38 3,8 C 2,8 C 0,0 C 94 % 1012,5 hPa 0,0 l/m 0 min 0 min 0 W/m 16,1 km/h (3 Bft) 95,65 %
04.02.2022 19:40 3,7 C 2,8 C 0,0 C 94 % 1012,6 hPa 0,0 l/m 0 min 0 min 0 W/m 35,4 km/h (5 Bft) 95,74 %
04.02.2022 19:42 3,7 C 2,8 C 0,0 C 94 % 1012,7 hPa 0,0 l/m 0 min 0 min 0 W/m 12,9 km/h (3 Bft) 97,87 %
04.02.2022 19:44 3,6 C 2,8 C 0,0 C 94 % 1012,7 hPa 0,0 l/m 0 min 0 min 0 W/m 22,5 km/h (4 Bft) 93,62 %
04.02.2022 19:46 3,6 C 2,8 C 0,0 C 94 % 1012,7 hPa 0,0 l/m 0 min 0 min 0 W/m 16,1 km/h (3 Bft) 97,87 %
04.02.2022 19:48 3,6 C 2,8 C 0,0 C 94 % 1012,7 hPa 0,0 l/m 0 min 0 min 0 W/m 19,3 km/h (3 Bft) 97,87 %
04.02.2022 19:50 3,6 C 2,8 C 0,0 C 94 % 1012,7 hPa 0,0 l/m 0 min 0 min 0 W/m 12,9 km/h (3 Bft) 97,83 %
04.02.2022 19:52 3,6 C 2,8 C 0,0 C 94 % 1012,8 hPa 0,0 l/m 0 min 0 min 0 W/m 12,9 km/h (3 Bft) 97,87 %
04.02.2022 19:54 3,6 C 2,8 C 0,0 C 94 % 1012,8 hPa 0,0 l/m 0 min 0 min 0 W/m 9,7 km/h (2 Bft) 97,87 %
04.02.2022 19:56 3,5 C 2,8 C 0,0 C 94 % 1012,8 hPa 0,0 l/m 0 min 0 min 0 W/m 12,9 km/h (3 Bft) 97,87 %
04.02.2022 19:58 3,5 C 2,8 C 0,0 C 94 % 1012,9 hPa 0,0 l/m 0 min 0 min 0 W/m 6,4 km/h (2 Bft) 97,87 %
04.02.2022 20:00 3,5 C 2,8 C 0,0 C 94 % 1012,9 hPa 0,0 l/m 0 min 0 min 0 W/m 12,9 km/h (3 Bft) 97,87 %
04.02.2022 20:02 3,4 C 2,8 C 0,0 C 94 % 1012,9 hPa 0,0 l/m 0 min 0 min 0 W/m 12,9 km/h (3 Bft) 97,83 %
04.02.2022 20:04 3,4 C 2,8 C 0,0 C 94 % 1012,9 hPa 0,0 l/m 0 min 0 min 0 W/m 16,1 km/h (3 Bft) 97,87 %
04.02.2022 20:06 3,5 C 2,8 C 0,0 C 94 % 1012,9 hPa 0,0 l/m 0 min 0 min 0 W/m 16,1 km/h (3 Bft) 97,87 %
04.02.2022 20:08 3,5 C 2,8 C 0,0 C 94 % 1013,0 hPa 0,0 l/m 0 min 0 min 0 W/m 12,9 km/h (3 Bft) 97,87 %
04.02.2022 20:10 3,5 C 2,8 C 0,0 C 94 % 1013,1 hPa 0,0 l/m 0 min 0 min 0 W/m 12,9 km/h (3 Bft) 97,87 %
04.02.2022 20:12 3,5 C 2,8 C 0,0 C 94 % 1013,1 hPa 0,0 l/m 0 min 0 min 0 W/m 16,1 km/h (3 Bft) 97,87 %
04.02.2022 20:14 3,5 C 2,8 C 0,0 C 94 % 1013,1 hPa 0,0 l/m 0 min 0 min 0 W/m 19,3 km/h (3 Bft) 95,65 %
04.02.2022 20:16 3,5 C 2,8 C 0,0 C 94 % 1013,1 hPa 0,0 l/m 0 min 0 min 0 W/m 22,5 km/h (4 Bft) 100,00 %
04.02.2022 20:18 3,5 C 2,8 C 0,0 C 94 % 1013,2 hPa 0,0 l/m 0 min 0 min 0 W/m 12,9 km/h (3 Bft) 100,00 %
04.02.2022 20:20 3,5 C 2,8 C 0,0 C 94 % 1013,2 hPa 0,0 l/m 0 min 0 min 0 W/m 12,9 km/h (3 Bft) 100,00 %
04.02.2022 20:22 3,5 C 2,8 C 0,0 C 94 % 1013,3 hPa 0,0 l/m 0 min 0 min 0 W/m 16,1 km/h (3 Bft) 100,00 %
04.02.2022 20:24 3,4 C 2,8 C 0,0 C 94 % 1013,2 hPa 0,0 l/m 0 min 0 min 0 W/m 12,9 km/h (3 Bft) 97,87 %
04.02.2022 20:26 3,4 C 2,8 C 0,0 C 94 % 1013,3 hPa 0,0 l/m 0 min 0 min 0 W/m 19,3 km/h (3 Bft) 97,83 %
04.02.2022 20:28 3,4 C 2,8 C 0,0 C 94 % 1013,3 hPa 0,0 l/m 0 min 0 min 0 W/m 16,1 km/h (3 Bft) 97,87 %
04.02.2022 20:30 3,4 C 2,8 C 0,0 C 94 % 1013,3 hPa 0,0 l/m 0 min 0 min 0 W/m 12,9 km/h (3 Bft) 97,87 %
04.02.2022 20:32 3,4 C 2,8 C 0,0 C 94 % 1013,3 hPa 0,0 l/m 0 min 0 min 0 W/m 12,9 km/h (3 Bft) 97,87 %
04.02.2022 20:34 3,4 C 2,8 C 0,0 C 94 % 1013,3 hPa 0,0 l/m 0 min 0 min 0 W/m 16,1 km/h (3 Bft) 97,87 %
04.02.2022 20:36 3,4 C 2,8 C 0,0 C 94 % 1013,3 hPa 0,0 l/m 0 min 0 min 0 W/m 16,1 km/h (3 Bft) 97,83 %
04.02.2022 20:38 3,4 C 2,8 C 0,0 C 94 % 1013,4 hPa 0,0 l/m 0 min 0 min 0 W/m 12,9 km/h (3 Bft) 97,87 %
04.02.2022 20:40 3,4 C 2,8 C 0,0 C 94 % 1013,4 hPa 0,0 l/m 0 min 0 min 0 W/m 12,9 km/h (3 Bft) 95,74 %
04.02.2022 20:42 3,4 C 2,8 C 0,0 C 94 % 1013,4 hPa 0,0 l/m 0 min 0 min 0 W/m 12,9 km/h (3 Bft) 95,74 %
04.02.2022 20:44 3,3 C 2,8 C 0,0 C 94 % 1013,5 hPa 0,0 l/m 0 min 0 min 0 W/m 12,9 km/h (3 Bft) 97,87 %
04.02.2022 20:46 3,3 C 2,8 C 0,0 C 94 % 1013,4 hPa 0,0 l/m 0 min 0 min 0 W/m 19,3 km/h (3 Bft) 97,87 %
04.02.2022 20:48 3,3 C 2,8 C 0,0 C 94 % 1013,5 hPa 0,0 l/m 0 min 0 min 0 W/m 12,9 km/h (3 Bft) 97,83 %
04.02.2022 20:50 3,3 C 2,8 C 0,0 C 94 % 1013,5 hPa 0,0 l/m 0 min 0 min 0 W/m 12,9 km/h (3 Bft) 95,74 %
04.02.2022 20:52 3,3 C 2,8 C 0,0 C 94 % 1013,5 hPa 0,0 l/m 0 min 0 min 0 W/m 9,7 km/h (2 Bft) 97,87 %
04.02.2022 20:54 3,3 C 2,2 C 0,0 C 94 % 1013,5 hPa 0,0 l/m 0 min 0 min 0 W/m 12,9 km/h (3 Bft) 91,49 %
04.02.2022 20:56 3,3 C 2,8 C 0,0 C 94 % 1013,6 hPa 0,0 l/m 0 min 0 min 0 W/m 12,9 km/h (3 Bft) 95,74 %
04.02.2022 20:58 3,3 C 2,8 C 0,0 C 94 % 1013,6 hPa 0,0 l/m 0 min 0 min 0 W/m 16,1 km/h (3 Bft) 93,62 %
04.02.2022 21:00 3,3 C 2,8 C 0,0 C 94 % 1013,6 hPa 0,0 l/m 0 min 0 min 0 W/m 12,9 km/h (3 Bft) 97,83 %
04.02.2022 21:02 3,3 C 2,2 C 0,0 C 94 % 1013,7 hPa 0,0 l/m 0 min 0 min 0 W/m 12,9 km/h (3 Bft) 93,62 %
04.02.2022 21:04 3,2 C 2,2 C 0,0 C 94 % 1013,8 hPa 0,0 l/m 0 min 0 min 0 W/m 16,1 km/h (3 Bft) 95,74 %
04.02.2022 21:06 3,2 C 2,2 C 0,0 C 94 % 1013,8 hPa 0,0 l/m 0 min 0 min 0 W/m 16,1 km/h (3 Bft) 95,74 %
04.02.2022 21:08 3,2 C 2,8 C 0,0 C 94 % 1013,8 hPa 0,0 l/m 0 min 0 min 0 W/m 6,4 km/h (2 Bft) 95,74 %
04.02.2022 21:10 3,2 C 2,8 C 0,0 C 94 % 1013,8 hPa 0,0 l/m 0 min 0 min 0 W/m 12,9 km/h (3 Bft) 95,74 %
04.02.2022 21:12 3,3 C 2,8 C 0,0 C 94 % 1013,9 hPa 0,0 l/m 0 min 0 min 0 W/m 19,3 km/h (3 Bft) 95,65 %
04.02.2022 21:14 3,3 C 2,8 C 0,0 C 94 % 1013,9 hPa 0,0 l/m 0 min 0 min 0 W/m 16,1 km/h (3 Bft) 95,74 %
04.02.2022 21:16 3,3 C 2,8 C 0,0 C 94 % 1013,9 hPa 0,0 l/m 0 min 0 min 0 W/m 19,3 km/h (3 Bft) 93,62 %
04.02.2022 21:18 3,3 C 2,8 C 0,0 C 94 % 1013,9 hPa 0,0 l/m 0 min 0 min 0 W/m 22,5 km/h (4 Bft) 95,74 %
04.02.2022 21:20 3,3 C 2,8 C 0,0 C 94 % 1013,9 hPa 0,0 l/m 0 min 0 min 0 W/m 9,7 km/h (2 Bft) 63,83 %
04.02.2022 21:22 3,3 C 2,8 C 0,0 C 94 % 1013,9 hPa 0,0 l/m 0 min 0 min 0 W/m 19,3 km/h (3 Bft) 86,05 %
04.02.2022 21:24 3,3 C 2,8 C 0,0 C 94 % 1013,9 hPa 0,0 l/m 0 min 0 min 0 W/m 12,9 km/h (3 Bft) 97,83 %
04.02.2022 21:26 3,3 C 2,8 C 0,0 C 94 % 1013,8 hPa 0,0 l/m 0 min 0 min 0 W/m 22,5 km/h (4 Bft) 100,00 %
04.02.2022 21:28 3,3 C 2,8 C 0,0 C 94 % 1013,9 hPa 0,0 l/m 0 min 0 min 0 W/m 19,3 km/h (3 Bft) 97,87 %
04.02.2022 21:30 3,3 C 2,8 C 0,0 C 94 % 1013,9 hPa 0,0 l/m 0 min 0 min 0 W/m 25,7 km/h (4 Bft) 100,00 %
04.02.2022 21:32 3,3 C 2,8 C 0,0 C 94 % 1013,9 hPa 0,0 l/m 0 min 0 min 0 W/m 12,9 km/h (3 Bft) 100,00 %
04.02.2022 21:34 3,3 C 2,8 C 0,0 C 94 % 1013,9 hPa 0,0 l/m 0 min 0 min 0 W/m 22,5 km/h (4 Bft) 97,87 %
04.02.2022 21:36 3,4 C 2,8 C 0,0 C 94 % 1014,0 hPa 0,0 l/m 0 min 0 min 0 W/m 16,1 km/h (3 Bft) 97,83 %
04.02.2022 21:38 3,4 C 2,8 C 0,0 C 94 % 1014,1 hPa 0,0 l/m 0 min 0 min 0 W/m 29,0 km/h (5 Bft) 100,00 %
04.02.2022 21:40 3,4 C 2,8 C 0,0 C 94 % 1014,0 hPa 0,0 l/m 0 min 0 min 0 W/m 12,9 km/h (3 Bft) 100,00 %
04.02.2022 21:42 3,4 C 2,8 C 0,0 C 94 % 1014,1 hPa 0,0 l/m 0 min 0 min 0 W/m 9,7 km/h (2 Bft) 100,00 %
04.02.2022 21:44 3,4 C 2,8 C 0,0 C 94 % 1014,1 hPa 0,0 l/m 0 min 0 min 0 W/m 22,5 km/h (4 Bft) 100,00 %
04.02.2022 21:46 3,4 C 2,8 C 0,0 C 94 % 1014,1 hPa 0,0 l/m 0 min 0 min 0 W/m 16,1 km/h (3 Bft) 97,87 %
04.02.2022 21:48 3,4 C 2,8 C 0,0 C 94 % 1014,1 hPa 0,0 l/m 0 min 0 min 0 W/m 19,3 km/h (3 Bft) 97,83 %
04.02.2022 21:50 3,4 C 2,8 C 0,0 C 94 % 1014,0 hPa 0,0 l/m 0 min 0 min 0 W/m 19,3 km/h (3 Bft) 100,00 %
04.02.2022 21:52 3,4 C 2,8 C 0,0 C 94 % 1014,1 hPa 0,0 l/m 0 min 0 min 0 W/m 12,9 km/h (3 Bft) 97,87 %
04.02.2022 21:54 3,4 C 2,8 C 0,0 C 94 % 1014,0 hPa 0,0 l/m 0 min 0 min 0 W/m 12,9 km/h (3 Bft) 100,00 %
04.02.2022 21:56 3,4 C 2,8 C 0,0 C 94 % 1014,2 hPa 0,0 l/m 0 min 0 min 0 W/m 19,3 km/h (3 Bft) 97,87 %
04.02.2022 21:58 3,3 C 2,8 C 0,0 C 94 % 1014,3 hPa 0,0 l/m 0 min 0 min 0 W/m 16,1 km/h (3 Bft) 95,74 %
04.02.2022 22:00 3,4 C 2,8 C 0,0 C 94 % 1014,2 hPa 0,0 l/m 0 min 0 min 0 W/m 16,1 km/h (3 Bft) 95,65 %
04.02.2022 22:02 3,4 C 2,8 C 0,0 C 94 % 1014,2 hPa 0,0 l/m 0 min 0 min 0 W/m 12,9 km/h (3 Bft) 97,87 %
04.02.2022 22:04 3,4 C 2,8 C 0,0 C 94 % 1014,4 hPa 0,0 l/m 0 min 0 min 0 W/m 22,5 km/h (4 Bft) 97,87 %
04.02.2022 22:06 3,4 C 2,8 C 0,0 C 94 % 1014,3 hPa 0,0 l/m 0 min 0 min 0 W/m 25,7 km/h (4 Bft) 97,87 %
04.02.2022 22:08 3,5 C 2,8 C 0,0 C 94 % 1014,2 hPa 0,0 l/m 0 min 0 min 0 W/m 16,1 km/h (3 Bft) 97,87 %
04.02.2022 22:10 3,6 C 2,8 C 0,0 C 94 % 1014,3 hPa 0,0 l/m 0 min 0 min 0 W/m 19,3 km/h (3 Bft) 97,87 %
04.02.2022 22:12 3,6 C 2,8 C 0,0 C 94 % 1014,3 hPa 0,0 l/m 0 min 0 min 0 W/m 16,1 km/h (3 Bft) 97,83 %
04.02.2022 22:14 3,6 C 2,8 C 0,0 C 94 % 1014,3 hPa 0,0 l/m 0 min 0 min 0 W/m 12,9 km/h (3 Bft) 55,56 %
04.02.2022 22:16 3,6 C 2,8 C 0,0 C 93 % 1014,3 hPa 0,0 l/m 0 min 0 min 0 W/m 19,3 km/h (3 Bft) 97,87 %
04.02.2022 22:18 3,6 C 2,8 C 0,0 C 93 % 1014,4 hPa 0,0 l/m 0 min 0 min 0 W/m 19,3 km/h (3 Bft) 93,62 %
04.02.2022 22:20 3,6 C 2,8 C 0,0 C 93 % 1014,5 hPa 0,0 l/m 0 min 0 min 0 W/m 22,5 km/h (4 Bft) 97,87 %
04.02.2022 22:22 3,6 C 2,8 C 0,0 C 93 % 1014,4 hPa 0,0 l/m 0 min 0 min 0 W/m 22,5 km/h (4 Bft) 97,87 %
04.02.2022 22:24 3,6 C 2,8 C 0,0 C 93 % 1014,6 hPa 0,0 l/m 0 min 0 min 0 W/m 19,3 km/h (3 Bft) 97,83 %
04.02.2022 22:26 3,6 C 2,8 C 0,0 C 93 % 1014,6 hPa 0,0 l/m 0 min 0 min 0 W/m 16,1 km/h (3 Bft) 97,87 %
04.02.2022 22:28 3,6 C 2,8 C 0,0 C 93 % 1014,6 hPa 0,0 l/m 0 min 0 min 0 W/m 19,3 km/h (3 Bft) 97,87 %
04.02.2022 22:30 3,6 C 2,8 C 0,0 C 93 % 1014,7 hPa 0,0 l/m 0 min 0 min 0 W/m 16,1 km/h (3 Bft) 95,74 %
04.02.2022 22:32 3,6 C 2,8 C 0,0 C 93 % 1014,8 hPa 0,0 l/m 0 min 0 min 0 W/m 16,1 km/h (3 Bft) 97,87 %
04.02.2022 22:34 3,6 C 2,8 C 0,0 C 93 % 1014,8 hPa 0,0 l/m 0 min 0 min 0 W/m 9,7 km/h (2 Bft) 100,00 %
04.02.2022 22:36 3,6 C 2,8 C 0,0 C 93 % 1014,8 hPa 0,0 l/m 0 min 0 min 0 W/m 16,1 km/h (3 Bft) 100,00 %
04.02.2022 22:38 3,6 C 3,3 C 0,0 C 93 % 1014,9 hPa 0,0 l/m 0 min 0 min 0 W/m 19,3 km/h (3 Bft) 100,00 %
04.02.2022 22:40 3,6 C 3,3 C 0,0 C 93 % 1014,9 hPa 0,0 l/m 0 min 0 min 0 W/m 12,9 km/h (3 Bft) 100,00 %
04.02.2022 22:42 3,6 C 3,3 C 0,6 C 93 % 1014,9 hPa 0,0 l/m 0 min 0 min 0 W/m 16,1 km/h (3 Bft) 97,87 %
04.02.2022 22:44 3,7 C 3,3 C 0,6 C 93 % 1014,9 hPa 0,0 l/m 0 min 0 min 0 W/m 19,3 km/h (3 Bft) 97,87 %
04.02.2022 22:46 3,7 C 3,3 C 0,6 C 93 % 1014,9 hPa 0,0 l/m 0 min 0 min 0 W/m 16,1 km/h (3 Bft) 95,65 %
04.02.2022 22:48 3,7 C 3,3 C 0,6 C 93 % 1015,0 hPa 0,0 l/m 0 min 0 min 0 W/m 16,1 km/h (3 Bft) 97,87 %
04.02.2022 22:50 3,7 C 2,8 C 0,6 C 93 % 1015,0 hPa 0,0 l/m 0 min 0 min 0 W/m 9,7 km/h (2 Bft) 97,87 %
04.02.2022 22:52 3,7 C 2,8 C 0,0 C 93 % 1015,0 hPa 0,0 l/m 0 min 0 min 0 W/m 12,9 km/h (3 Bft) 95,74 %
04.02.2022 22:54 3,7 C 2,8 C 0,0 C 93 % 1015,1 hPa 0,0 l/m 0 min 0 min 0 W/m 22,5 km/h (4 Bft) 97,87 %
04.02.2022 22:56 3,7 C 2,8 C 0,0 C 93 % 1015,2 hPa 0,0 l/m 0 min 0 min 0 W/m 25,7 km/h (4 Bft) 97,87 %
04.02.2022 22:58 3,7 C 3,3 C 0,0 C 93 % 1015,1 hPa 0,0 l/m 0 min 0 min 0 W/m 19,3 km/h (3 Bft) 97,83 %
04.02.2022 23:00 3,7 C 3,3 C 0,0 C 93 % 1015,1 hPa 0,0 l/m 0 min 0 min 0 W/m 12,9 km/h (3 Bft) 95,74 %
04.02.2022 23:02 3,7 C 3,3 C 0,0 C 93 % 1015,1 hPa 0,0 l/m 0 min 0 min 0 W/m 19,3 km/h (3 Bft) 97,87 %
04.02.2022 23:04 3,7 C 3,3 C 0,0 C 93 % 1015,2 hPa 0,0 l/m 0 min 0 min 0 W/m 22,5 km/h (4 Bft) 97,87 %
04.02.2022 23:06 3,7 C 3,3 C 0,0 C 93 % 1015,1 hPa 0,0 l/m 0 min 0 min 0 W/m 25,7 km/h (4 Bft) 97,87 %
04.02.2022 23:08 3,7 C 2,8 C 0,0 C 93 % 1015,1 hPa 0,0 l/m 0 min 0 min 0 W/m 16,1 km/h (3 Bft) 95,74 %
04.02.2022 23:10 3,7 C 2,8 C 0,0 C 93 % 1015,3 hPa 0,0 l/m 0 min 0 min 0 W/m 22,5 km/h (4 Bft) 97,83 %
04.02.2022 23:12 3,7 C 3,3 C 0,0 C 93 % 1015,2 hPa 0,0 l/m 0 min 0 min 0 W/m 22,5 km/h (4 Bft) 100,00 %
04.02.2022 23:14 3,7 C 3,3 C 0,0 C 93 % 1015,3 hPa 0,0 l/m 0 min 0 min 0 W/m 16,1 km/h (3 Bft) 100,00 %
04.02.2022 23:16 3,7 C 3,3 C 0,0 C 93 % 1015,4 hPa 0,0 l/m 0 min 0 min 0 W/m 12,9 km/h (3 Bft) 100,00 %
04.02.2022 23:18 3,7 C 3,3 C 0,0 C 93 % 1015,3 hPa 0,0 l/m 0 min 0 min 0 W/m 19,3 km/h (3 Bft) 100,00 %
04.02.2022 23:20 3,7 C 3,3 C 0,0 C 93 % 1015,4 hPa 0,0 l/m 0 min 0 min 0 W/m 16,1 km/h (3 Bft) 97,87 %
04.02.2022 23:22 3,7 C 2,8 C 0,0 C 93 % 1015,4 hPa 0,0 l/m 0 min 0 min 0 W/m 16,1 km/h (3 Bft) 100,00 %
04.02.2022 23:24 3,7 C 2,8 C 0,0 C 92 % 1015,4 hPa 0,0 l/m 0 min 0 min 0 W/m 19,3 km/h (3 Bft) 100,00 %
04.02.2022 23:26 3,7 C 2,8 C 0,0 C 92 % 1015,4 hPa 0,0 l/m 0 min 0 min 0 W/m 16,1 km/h (3 Bft) 100,00 %
04.02.2022 23:28 3,6 C 2,8 C 0,0 C 92 % 1015,3 hPa 0,0 l/m 0 min 0 min 0 W/m 22,5 km/h (4 Bft) 100,00 %
04.02.2022 23:30 3,6 C 2,8 C 0,0 C 92 % 1015,5 hPa 0,0 l/m 0 min 0 min 0 W/m 22,5 km/h (4 Bft) 100,00 %
04.02.2022 23:32 3,6 C 2,8 C 0,0 C 92 % 1015,5 hPa 0,0 l/m 0 min 0 min 0 W/m 16,1 km/h (3 Bft) 100,00 %
04.02.2022 23:34 3,6 C 2,8 C 0,0 C 92 % 1015,5 hPa 0,0 l/m 0 min 0 min 0 W/m 29,0 km/h (5 Bft) 100,00 %
04.02.2022 23:36 3,6 C 2,8 C 0,0 C 92 % 1015,5 hPa 0,0 l/m 0 min 0 min 0 W/m 16,1 km/h (3 Bft) 100,00 %
04.02.2022 23:38 3,5 C 2,8 C 0,0 C 92 % 1015,5 hPa 0,0 l/m 0 min 0 min 0 W/m 12,9 km/h (3 Bft) 97,87 %
04.02.2022 23:40 3,4 C 2,8 C 0,0 C 92 % 1015,6 hPa 0,0 l/m 0 min 0 min 0 W/m 19,3 km/h (3 Bft) 97,87 %
04.02.2022 23:42 3,4 C 2,8 C 0,0 C 92 % 1015,6 hPa 0,0 l/m 0 min 0 min 0 W/m 16,1 km/h (3 Bft) 100,00 %
04.02.2022 23:44 3,4 C 2,8 C 0,0 C 92 % 1015,6 hPa 0,0 l/m 0 min 0 min 0 W/m 32,2 km/h (5 Bft) 100,00 %
04.02.2022 23:46 3,3 C 2,8 C 0,0 C 92 % 1015,6 hPa 0,0 l/m 0 min 0 min 0 W/m 29,0 km/h (5 Bft) 100,00 %
04.02.2022 23:48 3,3 C 2,8 C 0,0 C 92 % 1015,7 hPa 0,0 l/m 0 min 0 min 0 W/m 12,9 km/h (3 Bft) 100,00 %
04.02.2022 23:50 3,3 C 2,8 C 0,0 C 92 % 1015,8 hPa 0,0 l/m 0 min 0 min 0 W/m 16,1 km/h (3 Bft) 97,87 %
04.02.2022 23:52 3,3 C 2,8 C 0,0 C 92 % 1015,8 hPa 0,0 l/m 0 min 0 min 0 W/m 12,9 km/h (3 Bft) 97,87 %
04.02.2022 23:54 3,3 C 2,8 C 0,0 C 92 % 1015,7 hPa 0,0 l/m 0 min 0 min 0 W/m 16,1 km/h (3 Bft) 97,87 %
04.02.2022 23:56 3,3 C 2,8 C -0,6 C 92 % 1015,8 hPa 0,0 l/m 0 min 0 min 0 W/m 19,3 km/h (3 Bft) 97,83 %
04.02.2022 23:58 3,2 C 2,2 C 0,0 C 92 % 1015,8 hPa 0,0 l/m 0 min 0 min 0 W/m 12,9 km/h (3 Bft) 97,87 %
_ Min-Zeit 21:04 20:54 23:56 14:36 16:00 - - - - 00:12 02:40
Minimum _ 3,2 C 2,2 C -0,6 C 81 % 1005,5 hPa - - - - 3,2 km/h (1 Bft) 42,86 %
_ Max-Zeit 14:18 11:44 11:42 00:28 23:50 16:18 08:32 14:38 11:46 14:04 01:04
Maximum _ 9,1 C 10,0 C 5,6 C 97 % 1015,8 hPa 0,2 l/m 2 min 2 min 312 W/m 77,2 km/h
S-SW (9 Bft)
100,00 %
Durchschnitt _ 6,6 C 6,0 C 3,2 C 91 % 1011,2 hPa #2,2 l/m #42 min. #2:08 h 74 W/m 23,5 km/h (4 Bft) 97,14 %
© 2022 W. Hausmann